GEFSCGP_500_meanwind_054.txt.gz
Wind_Speed
25 25 26 27 29 30 31 29 27 26 26 27 29 32 38 41 41 40 38 35 31 27 24 21 17 17 17 18 18 18 20 20 20 20 19 20 21 23 23 23 24 24 24 26
25 25 25 28 29 29 29 28 26 26 27 26 27 29 34 39 41 40 39 36 33 29 26 22 20 19 19 19 20 19 20 21 22 23 23 23 27 27 28 28 28 28 28 30
24 24 25 27 28 28 28 27 26 26 27 26 26 27 30 33 35 37 36 35 33 31 28 25 23 21 20 17 19 21 21 22 23 24 25 25 27 29 30 31 30 30 31 32
23 24 26 26 27 27 27 27 27 27 27 26 25 25 27 29 29 31 31 32 32 31 28 26 24 23 22 22 21 21 23 24 25 25 28 29 30 31 32 31 31 32 31 32
22 23 25 25 25 26 25 28 28 29 28 26 24 25 26 26 26 27 26 27 28 29 28 28 26 24 24 24 24 24 24 25 27 28 30 31 33 34 34 32 32 32 31 31
21 23 23 24 26 26 26 29 30 30 29 27 26 26 27 27 27 26 26 25 26 27 27 28 27 26 26 26 26 26 26 27 30 32 34 35 35 35 36 35 33 33 34 34
18 20 22 24 26 27 27 29 29 30 30 29 27 28 29 29 28 28 28 28 28 29 29 29 29 28 28 28 29 30 31 32 34 36 37 37 36 38 37 36 37 36 36 37
17 18 20 22 24 25 27 29 29 30 30 29 28 29 29 29 29 30 31 32 32 32 32 32 32 32 32 33 33 34 36 37 38 39 40 39 40 40 40 40 40 39 39 40
16 17 19 21 23 25 26 28 29 29 29 30 30 30 30 31 30 31 32 33 33 33 34 34 35 35 36 36 37 37 39 41 41 42 42 42 42 43 43 43 42 42 41 42
16 17 20 21 23 24 25 26 27 28 28 28 30 31 31 32 33 33 33 34 34 34 35 36 37 38 39 40 41 42 43 43 44 44 45 45 46 46 45 44 44 43 44 44
15 17 19 21 22 22 24 25 27 28 29 28 29 31 32 32 33 34 35 36 37 38 38 38 38 39 40 41 42 43 44 45 46 47 46 46 46 46 46 46 46 46 47 47
14 15 17 19 21 22 23 24 25 26 27 29 31 32 33 33 34 35 36 38 38 39 40 39 39 39 39 39 40 42 42 43 43 43 44 45 45 46 46 46 47 49 49 50
13 14 15 17 18 20 21 23 24 25 26 27 29 32 32 33 33 34 36 37 39 39 39 39 39 39 39 39 39 38 38 40 40 41 41 43 44 45 46 47 48 49 49 50
9 11 13 15 17 18 19 21 23 24 25 27 29 31 32 32 33 34 35 37 38 39 40 40 40 39 39 38 38 38 38 39 40 40 40 41 43 44 44 45 46 47 48 50
7 9 11 13 14 16 17 20 21 22 24 26 28 29 31 32 33 34 34 35 36 37 37 37 37 37 36 35 36 35 35 36 37 38 38 38 39 41 41 43 44 45 47 48
3 5 7 9 11 14 17 18 19 21 23 25 27 29 29 30 31 32 32 32 32 33 34 33 32 32 33 34 33 33 33 33 34 35 36 37 39 41 41 43 44 45 46 48
3 4 6 8 10 11 13 16 19 20 22 24 25 27 28 29 29 30 30 29 28 28 28 29 29 28 30 30 30 29 29 30 31 33 35 36 37 39 41 42 43 44 46 47
4 4 5 6 8 10 11 13 15 17 19 20 21 23 25 26 26 27 27 27 26 25 25 26 27 27 27 27 28 28 28 29 30 31 33 35 36 37 39 40 42 43 45 45
6 5 5 6 6 7 9 11 12 13 14 15 16 18 19 21 21 22 22 21 21 21 21 22 22 23 24 24 25 26 27 29 30 32 33 34 35 37 38 39 41 42 42 43
7 7 7 7 7 8 8 10 11 12 13 13 14 15 15 16 17 19 18 18 18 19 19 19 20 21 22 23 24 26 28 29 30 30 31 33 34 35 36 37 38 38 39 40
8 8 8 9 9 9 9 10 11 12 12 12 13 13 13 14 15 15 16 16 16 16 17 17 18 20 21 22 24 25 26 27 28 29 30 31 32 33 34 35 36 37 37 38
10 10 10 10 11 11 11 11 11 12 12 12 12 12 12 12 13 14 14 14 14 15 15 17 18 19 20 22 23 23 24 25 26 27 28 29 30 31 32 32 32 32 33 34
11 11 12 12 12 12 12 12 12 12 11 11 11 10 11 11 11 12 12 12 13 14 15 16 17 19 20 20 21 22 23 24 25 26 27 27 27 28 27 27 28 28 29 29
12 13 13 13 13 13 13 13 12 11 11 10 10 9 9 9 10 10 10 11 12 13 14 16 17 18 19 20 20 21 22 23 23 23 23 23 23 23 23 23 24 24 25 25
12 13 14 14 14 14 13 13 12 11 10 9 8 8 8 8 8 8 9 9 11 12 14 15 17 17 18 18 18 19 19 20 20 19 19 19 19 20 20 20 20 21 21 21
13 14 15 15 15 14 13 13 12 10 9 7 7 7 7 7 7 8 8 10 11 13 14 16 16 16 16 16 17 18 18 18 18 17 17 17 17 17 18 18 18 18 18 18

GEFSCGP_500_meanwind_060.txt.gz
Wind_Speed
18 19 20 22 23 26 26 26 26 28 29 28 28 26 26 26 29 32 34 33 32 32 30 28 24 23 22 22 22 23 24 24 25 25 25 27 27 27 27 27 29 30 31 32
18 19 21 22 23 24 25 25 25 26 28 27 26 26 25 26 29 31 33 33 33 33 31 29 27 25 25 25 25 25 26 27 27 28 29 31 30 30 30 31 31 32 34 35
17 18 20 21 22 23 24 24 25 26 26 26 25 25 25 26 28 30 32 34 34 33 32 31 29 28 28 27 27 28 28 29 30 30 32 31 32 33 33 33 34 35 35 37
16 18 19 20 21 22 22 23 25 26 24 22 24 20 25 26 27 29 31 33 34 33 33 32 32 31 31 30 30 29 29 31 32 31 32 34 35 36 36 37 38 38 38 39
15 16 18 19 20 21 22 23 25 26 25 24 23 20 23 25 26 28 30 31 33 34 35 35 35 34 34 33 32 31 31 32 33 34 34 34 36 36 38 40 40 41 41 40
12 14 17 18 20 21 22 23 24 25 23 22 23 21 22 23 24 25 26 28 30 32 35 36 37 36 35 34 34 33 34 34 35 36 36 35 36 37 38 40 40 41 41 40
9 11 14 17 18 20 21 22 20 20 21 20 24 24 24 22 22 22 23 25 26 28 30 32 34 35 35 35 35 35 35 35 36 36 36 36 38 40 41 41 41 42 41 40
6 8 13 15 17 18 20 21 18 15 18 20 24 25 24 21 21 21 21 22 23 24 26 28 31 32 33 34 35 35 35 35 36 36 37 37 39 40 41 41 43 42 42 43
8 8 11 14 17 19 20 21 21 19 18 18 23 25 23 21 21 21 21 22 23 23 24 25 27 29 31 32 33 34 35 36 36 38 38 39 41 42 44 45 45 44 45 45
10 10 10 13 16 18 19 20 21 19 15 16 21 24 24 23 22 22 22 23 24 24 25 27 28 29 31 33 34 35 36 37 38 40 42 43 44 45 45 46 46 46 47 46
8 10 10 12 15 17 18 19 20 18 17 15 18 23 22 22 23 24 24 25 26 26 28 29 30 32 33 35 36 37 38 40 41 43 43 44 45 45 46 46 47 47 47 47
9 10 10 12 13 15 18 19 19 17 18 19 17 21 21 22 23 24 25 26 27 29 30 32 33 35 36 37 38 39 41 41 42 43 44 45 46 46 46 47 47 47 47 47
7 9 8 9 11 14 16 17 18 19 19 18 18 23 22 23 24 25 26 28 29 31 32 33 35 36 38 38 39 40 41 42 42 43 43 44 45 44 44 45 45 46 46 47
6 8 9 9 11 12 14 16 17 18 17 19 22 24 23 24 25 26 27 28 30 31 33 34 35 36 37 38 38 39 40 41 41 42 42 42 42 43 43 43 44 44 45 45
6 7 8 9 9 11 13 15 17 18 19 21 23 24 24 25 26 27 28 28 30 31 32 33 34 35 36 36 37 37 38 38 38 38 39 39 40 41 42 42 42 43 44 44
4 5 6 7 9 10 12 14 16 17 19 21 22 23 24 25 25 25 26 27 28 29 30 31 31 31 32 32 33 33 34 35 36 37 37 37 38 39 40 40 41 41 43 44
2 3 4 5 7 8 11 12 14 16 18 20 21 22 23 24 25 25 26 26 27 27 27 27 27 28 28 28 29 30 31 31 32 33 33 34 35 36 37 38 39 40 40 41
2 1 2 4 6 8 9 11 13 15 17 18 20 21 22 23 23 23 24 24 24 25 25 25 25 26 26 27 28 29 29 30 30 30 31 32 33 34 35 36 37 37 38 39
3 2 1 2 5 7 8 10 11 13 15 17 18 18 18 19 20 21 21 20 21 21 21 22 22 23 24 24 25 26 26 27 28 29 29 30 31 32 33 34 35 35 36 36
5 4 3 3 4 5 7 8 9 11 12 13 14 15 15 16 17 17 17 18 19 19 20 20 20 21 21 22 23 23 24 25 26 27 28 29 29 30 31 32 33 33 34 34
6 6 5 5 5 5 6 7 8 9 11 12 12 12 12 14 15 15 15 15 16 16 17 18 18 19 19 20 22 22 23 24 25 25 26 26 27 28 28 29 28 29 29 30
6 6 6 6 6 6 7 7 8 9 10 10 10 10 10 11 12 12 12 12 13 13 14 15 16 17 18 19 21 22 23 24 24 24 24 25 24 24 24 24 24 24 25 25
7 7 8 8 8 8 8 8 8 8 8 8 8 8 8 8 8 9 10 10 10 11 12 13 15 16 18 19 21 21 22 22 22 22 22 22 22 21 20 20 21 21 22 22
7 8 9 9 9 9 9 9 9 8 7 6 6 5 5 5 6 7 7 7 8 10 11 13 15 16 17 19 20 21 21 21 21 21 21 20 19 18 18 19 18 19 19 19
8 9 10 11 11 10 10 10 9 7 7 6 6 5 5 5 5 6 6 7 8 10 11 13 14 15 17 17 18 19 19 19 19 18 18 17 17 16 16 16 16 17 16 16
8 10 11 11 11 11 11 11 10 8 7 7 6 6 5 5 5 6 7 8 9 10 12 13 14 15 15 16 17 17 17 17 17 17 16 15 14 14 14 14 14 14 14 14

GEFSCGP_500_meanwind_066.txt.gz
Wind_Speed
14 15 14 12 13 14 13 13 14 15 18 20 20 22 23 23 24 25 25 26 29 31 31 31 30 26 24 22 21 20 19 19 19 19 20 22 23 23 25 25 26 27 28 29
10 10 12 13 14 17 18 16 15 16 18 19 19 20 23 24 25 25 26 29 31 34 33 36 33 29 27 25 23 22 20 20 20 21 22 23 25 26 27 28 29 29 30 31
11 11 13 16 17 19 21 20 16 15 16 18 20 22 25 27 28 30 31 32 33 34 32 30 29 27 28 26 25 24 22 22 23 23 25 26 27 28 30 31 32 32 33 33
13 14 16 17 17 18 18 18 17 16 16 15 17 21 25 28 30 31 32 32 33 32 30 29 28 27 27 26 25 26 25 24 25 26 27 29 30 31 32 34 34 35 35 36
11 13 15 15 15 16 15 14 17 18 17 17 17 20 25 28 30 32 32 32 31 30 31 28 26 26 27 27 27 26 27 27 27 29 31 32 32 33 34 36 36 37 37 37
12 14 14 15 15 16 16 15 16 18 18 21 20 21 27 30 30 29 30 30 30 29 29 28 27 27 27 27 27 28 29 30 30 32 33 33 34 36 37 37 38 38 37 37
12 13 15 14 16 17 19 17 15 15 19 21 19 23 32 31 31 28 26 28 28 29 29 28 28 28 28 29 29 30 31 32 34 35 36 37 38 38 38 38 37 37 37 37
14 13 13 14 15 16 17 19 18 14 15 17 19 29 34 32 27 23 22 25 27 28 29 29 30 30 30 31 32 33 33 34 36 37 39 39 40 39 38 38 39 39 39 38
11 11 12 13 14 16 16 19 18 18 19 19 25 32 33 31 28 25 23 24 26 26 27 27 29 30 31 33 34 35 36 37 37 38 39 40 40 40 40 39 39 39 40 41
7 8 11 12 14 16 17 15 18 19 17 18 24 30 32 26 26 26 25 24 25 25 26 26 27 27 28 30 31 33 34 34 35 37 38 39 40 41 41 41 41 42 43 43
6 8 11 13 14 15 18 19 19 18 18 17 19 23 28 28 25 24 25 25 26 25 25 26 25 26 27 27 28 29 31 33 35 36 38 39 40 40 42 43 43 44 45 45
9 11 13 13 14 16 17 18 18 19 18 16 18 21 19 21 22 22 22 23 24 25 25 25 26 26 27 28 29 31 32 34 36 38 39 40 41 43 43 45 46 46 47 47
7 8 10 11 13 15 15 16 19 21 21 19 18 19 16 12 14 18 20 21 23 24 25 26 27 28 29 31 32 33 35 37 38 39 41 42 43 44 45 46 47 47 47 47
6 7 7 10 11 13 15 14 16 20 22 22 25 24 19 14 13 14 17 19 22 23 25 27 28 30 31 33 34 35 37 38 39 40 42 42 43 44 45 46 46 46 47 47
4 4 4 8 9 11 11 13 15 19 23 25 26 23 21 19 17 17 18 19 22 24 25 27 29 31 33 34 36 37 38 39 40 40 41 42 42 43 43 44 44 44 44 44
2 1 3 4 6 9 8 9 14 18 21 22 23 23 22 20 20 20 20 21 22 24 25 27 29 31 32 33 34 36 37 38 38 39 39 39 39 40 40 41 40 40 41 41
1 2 2 1 2 4 7 10 13 16 20 21 22 24 25 23 23 23 22 22 23 24 25 26 27 29 30 31 31 32 33 34 34 35 35 36 36 37 37 38 38 38 38 38
2 1 1 2 3 6 8 11 13 15 17 20 22 24 25 25 24 24 24 23 23 23 23 25 26 27 28 29 29 30 31 31 31 32 32 32 33 33 33 33 34 34 34 34
4 3 1 2 5 8 9 11 13 14 16 18 20 22 23 23 23 23 22 22 23 24 25 25 26 26 26 26 27 27 27 27 27 28 28 28 28 29 29 29 30 30 31 32
4 4 3 3 6 9 11 11 12 14 15 16 18 19 20 20 21 20 20 20 21 22 22 21 21 22 22 22 23 23 23 24 24 24 25 25 25 26 27 27 28 29 29 29
4 4 5 6 7 8 11 12 12 13 14 15 16 16 16 17 18 17 17 18 19 19 19 19 19 19 19 19 19 20 20 21 22 23 24 25 25 26 27 27 27 27 27 27
4 5 6 7 8 9 11 11 12 13 13 13 13 13 13 13 13 13 13 14 14 14 14 14 14 15 15 17 18 19 20 21 22 23 24 25 25 26 26 25 25 24 24 23
5 6 7 8 9 10 11 11 12 12 12 11 11 11 11 11 11 11 11 11 11 11 11 11 12 14 15 16 17 19 19 20 21 22 23 23 23 23 22 22 21 21 21 20
4 6 7 8 9 10 11 11 11 11 11 11 11 10 10 10 9 9 9 9 9 10 10 11 12 13 14 16 17 18 19 20 20 20 20 20 19 19 19 19 18 18 18 17
4 6 7 9 10 10 11 12 12 12 11 11 10 10 10 9 9 9 9 9 10 10 10 11 12 13 14 16 17 18 18 19 18 18 17 16 17 17 17 16 15 15 15 15
4 6 8 10 11 11 12 13 12 12 12 11 11 10 9 9 9 9 10 10 10 10 11 12 13 14 15 16 17 17 17 17 17 16 15 15 15 15 14 13 13 13 13 12

GEFSCGP_500_meanwind_072.txt.gz
Wind_Speed
15 15 15 15 15 15 15 16 17 17 16 16 16 18 22 27 32 36 37 37 37 36 35 34 31 29 28 28 26 24 24 24 24 23 21 21 20 20 20 20 20 19 19 18
13 14 14 15 16 17 17 17 16 16 15 14 14 15 20 25 30 33 35 36 36 36 35 34 32 31 29 29 29 26 25 26 25 25 23 23 22 20 20 19 18 18 19 19
11 13 16 17 17 17 17 17 17 16 16 16 15 17 20 23 27 29 31 33 34 34 34 33 31 31 32 31 28 27 25 25 26 26 24 23 22 21 20 20 19 20 20 20
13 14 16 17 17 17 18 17 16 17 17 20 19 19 22 23 25 27 29 30 31 31 32 32 32 32 33 32 30 29 27 26 26 27 26 25 24 22 20 20 21 22 23 23
13 15 17 17 16 18 17 17 18 18 18 20 21 21 22 24 24 25 27 28 28 29 30 31 31 32 32 32 32 29 28 27 28 27 26 26 25 24 21 20 22 23 24 24
13 14 17 17 17 18 18 18 20 20 20 20 19 22 23 22 23 23 24 26 27 28 30 32 32 34 33 31 32 31 28 25 25 26 25 24 23 21 20 20 22 23 23 23
12 12 14 16 17 18 19 20 20 21 21 20 19 22 23 22 23 23 24 25 27 28 28 30 31 32 32 32 30 29 26 24 24 24 24 23 22 21 21 21 22 23 23 24
12 10 12 14 16 19 19 21 21 20 20 19 22 24 25 24 24 23 22 24 27 27 28 28 28 29 30 30 28 28 27 24 23 24 24 24 24 24 24 24 24 25 26 27
12 9 10 12 14 18 20 20 20 20 19 18 21 23 25 26 26 24 23 23 24 26 26 26 27 28 29 29 28 27 26 26 25 25 25 25 26 25 26 27 27 28 29 29
11 8 8 11 14 18 19 19 19 19 19 19 20 21 22 24 25 26 25 25 24 25 26 27 26 27 28 28 28 27 26 26 26 25 25 25 26 27 28 29 30 31 31 31
9 7 6 10 12 16 17 19 19 20 19 19 20 21 22 23 23 24 25 25 26 26 25 25 25 26 26 26 26 25 25 26 26 26 27 27 28 29 30 31 32 33 34 35
7 6 5 9 12 15 17 17 18 19 18 18 19 20 19 20 20 19 19 22 25 26 25 24 24 24 25 25 25 25 26 26 27 27 28 29 30 30 31 33 34 35 37 38
5 3 3 7 12 15 16 16 15 15 16 16 18 17 17 18 16 15 15 17 20 21 22 23 23 23 23 24 25 26 27 28 28 29 30 31 32 34 35 36 37 38 39 40
4 2 2 5 10 13 15 14 14 15 16 16 16 16 17 16 15 13 12 13 16 17 18 20 22 23 24 25 26 27 28 29 30 31 33 34 35 36 37 38 38 39 39 39
3 2 2 5 9 12 12 12 13 14 16 17 18 17 16 16 13 13 12 13 14 15 17 19 21 23 25 26 27 28 29 30 32 33 34 35 36 36 37 37 37 37 37 38
1 1 1 5 7 7 8 7 8 11 14 15 16 16 16 15 13 13 12 13 15 17 19 21 22 24 25 26 27 28 29 30 31 32 33 34 34 34 34 35 35 36 36 36
1 1 1 5 4 3 4 4 6 8 10 13 14 15 16 16 15 14 14 15 15 16 18 20 22 23 24 25 26 27 28 29 30 30 31 31 31 31 31 31 32 32 32 32
3 3 4 2 0 1 2 4 6 8 10 10 12 13 14 15 14 14 14 15 15 16 18 20 22 22 23 24 25 26 27 27 27 27 27 28 28 28 28 28 28 28 28 29
4 3 3 3 3 3 4 5 6 8 9 10 10 12 13 13 13 13 13 14 14 15 17 19 21 22 23 24 23 23 23 24 24 24 25 25 25 25 25 26 26 27 27 28
3 3 4 5 5 5 6 7 7 8 9 10 10 11 12 12 12 12 12 12 13 14 16 17 19 20 20 20 21 20 21 21 22 22 22 22 23 24 25 25 25 26 27 27
4 4 5 6 6 7 8 9 9 10 11 10 10 10 11 10 10 10 10 10 11 12 14 15 16 17 18 18 19 19 19 19 20 20 20 21 22 22 23 23 24 24 25 24
6 6 7 7 7 8 9 10 11 11 11 11 10 10 10 9 9 9 8 8 9 9 10 11 12 13 13 14 15 16 16 17 17 18 19 19 20 20 21 21 21 21 20 20
6 6 7 8 8 9 10 10 11 11 11 11 10 10 9 9 8 8 7 7 7 7 7 8 8 10 11 12 13 14 15 16 17 18 18 18 18 18 18 18 18 17 17 16
6 7 8 9 9 10 11 11 11 11 11 11 10 10 9 9 9 8 7 7 6 6 7 7 8 9 10 12 12 14 15 16 17 17 18 17 17 16 16 16 15 15 15 14
7 7 9 10 11 11 12 12 12 12 12 12 12 11 10 10 9 9 8 8 7 7 8 8 9 10 11 12 13 14 15 16 16 16 15 15 14 14 14 14 13 13 12 12
7 8 9 10 11 12 13 13 14 14 13 13 13 12 12 11 10 9 9 9 9 9 9 9 10 11 11 12 13 14 14 15 15 14 14 13 13 13 12 12 11 11 11 11

GEFSCGP_500_meanwind_078.txt.gz
Wind_Speed
21 20 20 21 21 20 21 21 20 21 24 26 28 27 26 27 30 33 35 36 37 36 35 33 31 30 29 27 26 26 26 26 27 27 25 23 24 25 25 25 25 26 27 27
19 19 20 20 19 19 20 20 19 21 23 25 26 25 23 24 26 29 31 34 35 35 35 34 33 31 30 29 27 26 26 27 27 28 26 26 25 26 26 26 27 28 28 29
16 18 19 19 19 19 19 20 20 21 22 23 24 23 21 22 23 25 27 30 32 34 35 34 33 32 31 30 28 27 27 27 27 27 28 27 26 27 28 27 28 28 28 28
16 17 19 19 19 19 19 20 20 21 22 22 22 21 20 20 21 22 24 25 28 31 33 34 33 33 32 30 28 27 26 25 27 28 28 26 26 26 27 28 29 27 27 27
16 17 19 19 18 19 19 20 21 21 22 22 22 22 20 19 20 20 21 22 24 27 30 31 31 31 31 30 28 27 27 27 27 27 26 27 26 25 26 28 29 29 28 27
16 17 18 17 17 19 19 19 20 21 22 22 21 22 21 19 19 19 20 21 22 23 26 28 29 28 29 29 28 28 27 27 26 25 25 25 23 22 25 27 26 27 27 26
16 17 17 17 17 17 18 18 19 20 21 21 21 22 21 20 18 18 20 20 20 21 23 25 26 27 27 26 26 26 25 24 23 23 24 23 21 20 22 22 21 23 25 25
16 15 16 16 17 17 17 18 19 19 20 21 23 21 20 19 18 17 18 18 19 20 20 21 23 24 24 24 25 25 23 22 22 22 22 22 20 20 19 20 20 20 21 22
17 15 15 15 15 15 16 17 19 20 20 20 21 21 20 19 18 18 18 18 19 20 20 20 21 23 23 23 23 23 22 22 22 22 21 21 21 19 18 18 18 18 19 19
16 16 13 13 13 14 14 16 17 18 19 20 20 20 20 20 21 21 21 21 20 21 21 20 21 21 22 21 21 21 21 22 21 21 21 21 20 19 18 18 18 19 20 21
14 14 12 12 12 12 13 14 15 17 18 19 19 19 19 20 21 21 20 19 19 20 22 21 22 22 21 22 22 22 22 21 21 21 22 22 21 21 21 21 21 21 22 23
13 12 11 10 9 10 11 12 13 16 16 17 18 18 17 18 19 19 19 18 18 18 20 21 22 22 22 21 22 22 22 22 22 22 22 23 22 22 22 22 23 23 24 25
11 10 8 7 7 8 10 11 13 15 16 16 16 16 16 17 16 16 17 17 17 16 17 18 19 20 21 21 21 21 22 22 22 23 23 23 23 24 24 25 25 26 27 29
10 9 8 7 6 7 9 11 12 14 14 14 14 14 13 14 13 13 14 15 15 15 15 16 18 19 20 20 21 22 23 23 23 24 24 25 25 25 26 27 27 28 29 30
9 7 6 6 6 7 7 8 10 12 12 13 12 13 13 12 14 13 13 14 14 13 14 15 16 17 19 20 21 22 22 23 23 24 25 25 25 26 27 28 29 29 30 30
7 5 5 4 5 5 6 7 8 9 11 12 12 12 12 12 13 12 12 12 12 12 13 14 16 17 18 19 21 22 22 23 24 24 25 25 26 27 27 28 28 29 29 30
5 4 2 2 2 3 4 6 7 8 8 9 10 10 11 11 10 10 9 10 12 13 14 16 17 18 19 20 20 21 22 23 23 24 24 25 25 26 27 27 27 28 28 28
4 2 2 2 2 3 4 5 6 6 7 8 8 8 8 9 9 9 9 10 11 13 14 15 16 17 18 20 20 21 21 21 21 22 22 23 23 24 24 25 25 25 26 27
4 3 2 2 3 3 3 4 5 6 6 6 7 7 8 8 9 10 10 11 12 14 14 15 16 17 18 19 19 19 19 20 20 21 21 21 22 22 23 23 24 24 25 25
3 2 1 2 3 3 4 4 5 5 6 6 6 6 7 7 9 9 10 12 12 13 13 14 15 16 17 18 18 19 19 19 20 20 20 21 21 21 22 22 22 23 23 23
3 1 1 2 2 3 4 5 5 5 6 6 6 6 6 7 7 8 9 10 11 11 12 13 14 15 16 16 17 18 18 19 19 19 19 20 20 20 20 21 21 21 21 21
3 1 1 2 3 4 5 5 5 6 7 6 6 6 6 6 6 6 6 7 8 9 10 11 12 13 13 14 15 15 16 17 17 18 18 18 18 19 19 19 19 19 18 18
3 2 2 3 4 5 5 5 6 6 7 7 7 6 6 5 5 5 6 6 7 8 9 9 10 11 12 12 13 14 15 15 15 16 16 17 17 17 17 17 17 17 16 16
4 3 3 4 5 6 6 6 6 7 8 7 7 7 6 6 6 5 6 6 7 7 8 9 10 11 11 12 13 14 14 15 15 15 15 15 15 15 15 16 16 15 14 14
5 5 5 6 7 8 8 9 9 9 9 9 8 8 7 7 7 7 6 6 6 7 7 8 9 10 11 11 12 13 13 14 14 15 15 15 14 14 14 14 13 13 13 12
6 6 6 7 8 9 9 10 11 11 11 11 10 10 10 9 9 8 7 7 7 7 7 7 8 8 9 10 11 12 12 13 13 13 13 13 13 12 12 11 11 11 10 10

GEFSCGP_500_meanwind_084.txt.gz
Wind_Speed
17 17 18 19 19 19 19 19 19 21 22 21 22 22 22 22 23 24 25 28 31 33 34 35 34 34 33 32 31 30 28 27 26 25 25 23 23 25 25 26 27 27 27 28
16 17 18 19 19 18 18 18 18 20 21 21 22 22 21 21 21 21 23 25 29 32 34 35 36 36 36 35 33 31 29 28 27 26 25 24 24 25 25 26 27 28 30 31
15 17 19 18 18 18 18 18 19 19 20 21 21 20 20 19 19 19 20 23 26 30 33 35 36 36 37 36 35 34 33 31 29 28 27 25 26 26 24 25 26 27 29 31
16 18 18 18 17 18 17 19 19 19 18 16 19 17 18 18 18 18 19 20 23 27 30 34 36 37 37 37 37 36 34 33 31 29 28 27 26 26 25 25 25 24 26 29
17 18 18 18 18 18 18 19 19 19 19 18 17 17 17 18 16 16 17 18 19 22 26 30 33 35 36 37 37 36 34 33 30 29 28 28 26 26 25 26 25 24 26 29
17 18 18 18 18 18 18 18 18 18 16 17 15 16 17 16 15 15 15 16 17 19 22 25 29 32 34 35 35 35 33 33 31 30 29 28 26 25 25 24 23 23 24 26
16 17 18 17 17 17 16 15 14 14 14 14 15 16 17 16 14 14 15 16 16 17 19 21 24 29 31 32 32 33 32 31 30 29 27 26 25 25 24 22 21 21 22 24
14 14 18 16 15 14 14 13 13 14 12 13 16 16 16 15 15 14 14 14 16 18 18 19 21 24 28 30 31 31 31 31 30 29 27 26 25 24 22 21 21 21 21 22
14 14 16 15 14 13 14 13 14 15 14 14 15 17 16 14 14 15 14 14 15 17 18 19 21 22 24 27 29 30 30 30 29 28 27 26 25 23 22 21 21 21 21 22
13 13 14 14 13 13 13 13 14 13 14 14 14 16 15 14 14 14 14 14 15 17 18 19 20 22 23 25 26 28 29 29 28 28 27 26 25 24 22 20 20 20 19 20
12 12 13 13 11 11 12 12 12 12 13 13 13 13 13 13 14 15 15 15 16 17 18 19 20 22 22 24 24 26 27 27 26 26 25 24 22 21 21 21 20 19 19 19
11 10 10 11 11 10 10 10 11 12 13 13 13 15 14 14 14 15 15 15 15 16 17 18 20 22 23 24 25 25 25 25 25 25 25 24 23 22 22 22 21 20 21 21
10 10 9 10 11 10 9 9 10 11 12 13 14 14 13 14 14 14 15 16 16 15 16 17 19 20 22 23 24 25 25 25 25 25 25 24 23 23 23 23 23 23 23 23
10 9 8 9 10 10 9 9 10 10 11 13 13 14 14 14 14 15 15 16 15 15 16 18 18 20 21 22 23 24 25 26 25 25 25 25 25 25 25 25 26 25 25 25
9 8 8 8 8 7 7 8 9 10 11 11 12 14 14 14 14 14 14 15 16 15 16 17 18 19 21 22 23 23 24 24 24 24 24 24 25 26 25 25 25 25 25 27
7 7 7 6 6 6 7 8 9 9 10 11 12 13 13 13 14 14 15 16 15 15 16 17 17 18 19 20 21 22 22 23 23 23 23 24 24 24 24 24 25 26 26 27
6 6 6 6 6 7 8 9 9 9 9 10 11 12 12 13 14 14 14 15 15 15 15 15 15 15 16 16 17 18 20 20 21 22 22 23 23 22 23 24 25 26 26 27
6 5 6 6 7 8 8 8 9 10 10 10 11 11 11 11 11 12 12 13 14 14 14 14 13 13 13 14 15 16 17 19 20 20 21 22 23 23 24 24 24 25 25 26
6 6 6 6 7 8 9 9 9 9 9 9 10 10 10 10 10 10 10 10 12 13 12 12 13 13 12 13 14 15 16 16 17 18 20 21 21 22 22 23 23 24 24 25
7 6 6 6 7 8 9 9 9 8 8 9 9 9 9 9 9 9 9 9 10 11 10 10 11 12 12 13 13 14 15 16 16 17 18 19 19 20 20 21 22 22 22 23
7 7 6 6 7 8 8 8 8 7 8 8 8 8 8 8 8 8 8 9 10 10 10 10 10 10 11 12 13 14 15 15 16 17 17 17 18 19 19 19 20 20 21 21
6 5 5 5 6 7 6 6 6 6 6 7 7 7 7 6 6 7 7 8 8 8 8 9 10 11 12 12 12 13 14 15 15 16 16 16 16 17 18 18 19 19 19 20
6 5 5 5 5 5 5 5 5 5 5 5 5 6 5 5 5 4 5 6 7 7 7 8 10 10 11 11 11 12 12 13 13 14 14 15 15 15 15 16 16 17 17 17
6 5 4 3 3 4 4 4 4 4 4 4 5 5 5 4 4 3 4 4 5 6 6 7 8 9 9 9 10 10 11 11 12 12 12 12 12 12 13 13 14 14 14 14
6 4 3 2 1 2 2 3 3 3 4 4 4 5 5 5 4 4 4 3 4 4 4 5 5 5 7 8 8 9 9 10 10 10 10 10 11 12 12 12 12 12 12 12
7 5 3 2 1 1 2 3 3 4 4 4 4 5 6 6 6 6 6 5 5 4 3 3 3 4 5 6 7 7 7 7 7 7 8 8 8 9 9 9 9 9 9 10

GEFSCGP_500_meanwind_090.txt.gz
Wind_Speed
10 10 9 8 10 12 15 16 18 18 18 22 22 20 21 22 23 25 27 26 27 30 32 33 34 33 34 33 33 33 32 31 29 28 27 26 24 22 22 22 22 23 24 25
8 8 9 10 13 16 16 16 16 16 17 22 23 21 21 23 25 27 28 28 28 30 33 33 34 34 35 35 35 34 34 31 30 28 27 25 23 21 21 20 20 21 21 23
7 7 12 13 14 15 14 14 15 16 19 22 22 22 22 25 27 28 28 28 27 30 32 34 34 35 36 36 35 36 35 33 31 29 27 26 24 22 21 21 22 21 21 23
10 11 15 15 14 14 14 13 17 18 20 21 20 24 24 27 29 30 29 28 27 29 30 32 34 35 37 38 37 37 36 35 33 31 28 26 25 24 23 23 23 22 23 23
10 12 15 15 13 15 15 15 18 19 20 21 21 25 26 27 29 30 26 24 24 25 27 29 32 34 35 37 37 38 37 36 35 32 29 28 26 25 24 24 24 24 25 25
9 12 14 14 15 16 16 16 17 16 18 21 21 24 26 28 29 28 26 21 20 21 23 25 28 31 32 34 35 37 36 36 35 33 31 31 29 27 26 26 26 26 26 26
8 12 15 15 15 15 16 16 16 16 19 21 22 24 26 26 25 26 22 19 19 20 22 23 25 27 29 31 32 34 34 34 34 32 32 32 30 28 27 26 26 26 26 27
10 13 14 15 16 16 15 15 16 19 20 22 23 24 23 23 21 17 16 17 18 20 20 22 23 25 27 28 30 31 32 32 32 31 31 31 29 29 28 27 27 26 26 27
12 14 13 15 17 17 14 13 14 19 20 23 23 24 21 18 19 16 15 16 18 19 19 21 22 23 25 26 27 29 31 31 32 32 31 31 30 29 27 27 27 26 26 26
14 15 12 14 15 13 12 11 14 16 19 21 20 21 22 21 18 14 14 15 16 16 18 20 21 21 22 24 26 27 29 31 31 32 32 30 30 29 27 28 28 27 27 27
16 15 12 11 12 12 13 13 14 15 17 20 21 22 24 20 18 15 14 15 15 16 18 20 20 20 21 22 23 25 26 28 30 31 31 31 29 29 28 28 28 28 28 27
16 15 13 12 13 13 14 14 14 16 16 18 20 23 23 20 18 16 15 15 16 17 18 20 21 21 22 22 23 24 25 26 28 28 29 29 29 29 28 28 28 27 27 27
15 15 13 13 13 12 12 13 13 15 17 17 19 23 22 20 16 16 15 15 15 17 18 19 19 20 21 22 22 22 24 25 26 27 27 28 28 28 28 28 28 28 27 27
15 14 13 12 10 9 9 10 11 15 17 17 18 22 22 19 17 15 14 15 15 17 18 19 19 19 20 22 22 22 23 23 25 26 26 26 27 28 29 29 29 28 27 28
14 13 12 10 8 8 9 10 12 15 17 18 20 21 21 19 18 16 16 15 16 17 18 19 19 19 20 20 21 22 23 24 24 25 26 26 27 27 28 28 29 29 28 28
12 11 10 9 8 8 9 11 13 14 16 17 19 20 20 20 19 18 17 18 18 19 19 20 19 19 19 20 21 21 22 22 23 24 24 25 25 26 26 26 26 27 27 27
11 10 9 9 9 8 10 11 13 14 16 17 18 19 20 19 19 19 19 19 18 19 19 18 19 19 19 19 20 21 22 22 22 23 24 24 24 24 24 26 26 26 26 25
10 10 10 9 8 9 9 11 12 14 15 16 17 18 18 19 20 20 19 19 18 18 18 17 17 16 16 17 18 19 21 20 20 21 22 23 23 24 24 24 23 24 24 24
12 11 11 10 8 10 10 12 13 14 15 16 17 17 18 19 19 18 17 17 16 15 15 15 15 15 14 15 15 16 16 17 18 18 19 20 20 21 21 21 21 22 22 22
11 10 10 9 10 11 10 13 14 16 16 16 16 16 16 17 17 16 16 15 14 13 12 12 13 14 13 12 13 13 13 13 13 14 15 15 16 16 18 18 19 19 19 20
10 9 10 9 10 12 12 13 15 16 16 16 16 15 15 16 15 15 14 13 11 11 11 11 11 11 11 11 11 10 10 10 11 13 13 14 14 15 15 16 16 17 18 18
9 10 10 10 11 12 13 14 14 14 15 15 15 15 15 15 14 13 12 11 10 9 8 8 9 9 9 9 9 9 10 11 11 11 12 13 13 14 14 14 15 16 16 17
10 10 10 10 10 11 12 13 13 13 13 14 14 14 13 13 13 12 11 10 9 8 8 8 8 7 7 7 8 9 9 9 9 9 10 11 11 11 12 13 14 14 15 15
9 9 9 9 10 10 11 12 12 12 12 13 12 12 12 12 12 11 10 9 8 7 6 6 6 6 6 6 7 7 7 7 7 8 8 9 9 10 11 12 13 13 14 14
7 7 7 8 8 9 9 10 11 11 11 11 11 11 11 10 10 9 9 8 7 6 5 5 5 5 5 6 6 6 6 6 6 6 7 7 8 9 9 10 10 11 10 10
7 5 6 7 7 8 8 8 9 10 10 10 10 10 10 10 10 9 9 8 6 5 4 4 4 4 4 5 5 5 5 5 5 5 5 6 7 7 8 8 8 8 8 8

GEFSCGP_500_meanwind_096.txt.gz
Wind_Speed
15 14 12 12 13 14 16 16 14 11 10 12 12 14 17 20 22 22 24 25 25 26 28 28 29 30 30 29 29 27 27 27 28 28 29 29 28 28 28 26 25 25 22 22
14 13 14 14 14 16 16 14 12 11 13 14 16 19 21 22 24 26 26 26 26 28 28 30 30 31 31 31 28 27 28 28 29 29 30 30 29 26 26 25 24 23 22 22
15 16 17 16 14 14 12 13 12 13 16 20 22 24 25 26 26 27 27 27 28 28 28 29 30 31 32 32 30 29 29 29 28 30 30 32 31 26 24 24 24 22 21 22
17 19 18 16 12 11 12 12 13 16 18 21 24 27 27 27 27 28 27 27 27 29 29 30 30 31 31 31 31 30 30 29 29 30 31 31 30 29 26 23 22 22 21 20
18 19 18 15 13 13 12 13 14 15 18 20 22 25 25 26 26 27 28 29 29 29 28 28 29 30 30 30 30 29 29 29 28 28 29 29 29 29 28 24 21 20 20 19
17 18 17 14 12 13 14 15 16 17 18 19 18 21 22 22 24 26 27 28 28 28 27 27 27 27 28 27 27 27 27 28 29 28 27 27 27 27 27 25 22 20 19 18
17 17 16 14 13 13 14 16 16 16 17 17 17 20 20 20 22 24 25 25 25 25 25 25 25 25 24 25 25 25 26 26 27 26 26 27 27 26 26 26 24 22 21 20
16 15 14 14 13 13 13 14 16 17 17 17 17 19 19 19 21 22 21 21 21 21 22 22 22 23 23 23 23 24 24 24 24 24 24 25 25 25 25 26 25 23 22 22
17 16 15 14 13 13 14 15 15 17 18 18 18 18 18 19 21 20 19 18 18 18 18 20 21 22 22 21 21 22 23 23 23 24 24 24 22 22 23 25 24 22 21 21
17 16 14 13 13 13 13 14 15 16 18 19 18 18 18 18 19 19 16 14 14 15 16 18 19 20 20 19 19 20 21 22 22 23 23 23 23 23 22 23 24 23 22 22
17 15 14 13 13 13 14 15 16 17 18 19 20 18 17 18 18 17 15 14 14 14 14 16 18 19 19 18 18 18 19 20 21 21 22 22 22 22 22 22 23 23 23 22
16 15 14 14 13 13 15 17 17 17 17 18 19 19 17 18 18 16 14 15 15 13 13 15 17 18 18 18 18 17 17 18 19 20 20 21 21 21 21 21 22 22 22 21
15 15 14 13 13 13 15 16 17 16 16 18 18 18 18 17 16 15 16 15 14 13 13 15 16 17 17 18 18 18 18 18 18 18 19 19 20 20 20 21 21 20 20 21
15 14 14 13 14 14 15 15 16 16 16 16 17 17 17 16 16 17 16 15 14 14 15 15 16 17 17 17 17 18 18 17 18 17 17 18 18 19 20 20 21 21 21 21
15 15 13 13 13 14 15 14 14 14 15 16 16 16 16 16 16 16 16 15 15 15 16 17 17 17 18 18 18 18 17 17 17 17 17 17 18 18 19 20 20 20 21 21
15 14 14 13 14 14 13 12 12 13 14 15 15 15 16 17 17 17 16 16 16 16 16 17 17 17 18 18 18 18 18 17 17 17 17 17 17 18 18 19 19 20 20 20
14 14 14 13 12 12 12 11 12 13 13 14 14 16 17 18 18 18 17 17 16 17 17 17 18 18 18 18 17 17 17 17 17 17 18 18 17 17 18 18 18 17 17 18
14 13 13 12 11 11 10 11 11 13 13 13 15 16 17 18 18 18 18 17 17 17 17 17 16 16 16 16 15 15 16 16 15 16 16 16 16 16 16 16 16 16 16 17
14 14 13 12 11 10 9 10 11 12 13 13 15 17 18 18 17 17 16 16 16 16 16 15 14 14 14 13 13 13 13 13 13 13 13 13 13 14 14 14 14 15 16 17
14 13 11 10 10 9 8 10 10 11 12 14 15 16 17 16 15 15 15 15 15 15 13 11 11 10 10 10 10 10 9 9 10 10 11 11 11 11 12 13 14 15 15 16
13 11 10 10 9 7 8 9 10 11 12 14 15 15 16 15 14 14 14 14 14 12 9 8 8 8 7 7 7 6 6 6 6 7 7 8 8 9 10 11 11 13 14 14
13 12 11 9 8 6 7 7 9 11 12 13 14 14 14 14 14 13 13 13 11 8 7 6 5 5 5 5 5 5 4 4 4 4 5 5 5 6 6 7 8 9 10 11
12 11 9 7 5 4 5 7 9 10 11 12 13 13 13 13 13 12 12 11 8 6 5 3 3 3 3 4 4 4 3 3 3 3 3 3 4 4 5 6 7 7 8 9
10 8 7 6 4 3 5 6 8 10 11 12 12 12 12 11 11 11 10 9 7 6 4 2 1 2 2 3 3 2 3 2 2 2 2 2 2 3 3 4 5 5 5 6
9 7 5 4 3 2 3 5 7 9 11 11 11 11 11 11 11 10 10 8 7 6 4 2 0 2 2 2 2 2 2 2 2 2 2 1 1 1 2 2 2 2 3 3
8 6 5 4 2 0 2 4 6 9 10 10 10 11 11 11 11 11 10 9 8 6 5 3 2 3 2 2 3 2 2 2 2 2 2 1 1 1 2 2 2 1 1 1

GEFSCGP_500_meanwind_102.txt.gz
Wind_Speed
15 15 16 17 17 16 16 17 18 19 20 20 19 19 19 19 19 19 19 20 20 21 21 22 23 24 24 24 25 26 26 26 27 28 28 27 27 27 28 29 28 29 28 29
15 17 18 18 18 17 17 18 18 20 20 19 19 19 19 19 19 19 20 21 22 22 22 23 24 25 25 26 26 26 27 27 27 27 28 27 26 26 26 26 26 26 27 27
16 18 19 18 18 18 18 18 19 20 21 21 21 21 20 20 20 21 21 23 24 24 25 25 26 27 27 27 27 27 27 27 27 27 27 27 27 26 25 25 25 25 25 27
18 19 19 18 18 18 18 19 20 21 21 20 21 20 19 20 20 21 23 24 25 26 27 28 29 29 28 27 28 28 27 26 26 26 27 27 26 26 27 26 25 25 25 25
19 19 18 18 18 18 18 18 19 19 20 20 21 21 20 20 21 22 23 24 25 26 27 27 27 27 27 27 27 27 26 26 25 25 25 25 25 25 26 26 25 25 25 24
19 19 18 18 18 18 18 19 19 19 19 19 19 21 20 20 21 21 22 23 25 26 26 25 25 25 26 26 25 25 24 24 24 24 23 24 25 25 25 24 24 25 25 24
18 18 18 18 18 18 18 18 18 19 18 18 17 19 19 19 20 20 20 22 23 24 25 24 23 22 22 23 24 24 23 22 23 23 22 23 24 24 24 24 24 24 25 23
17 18 18 17 17 18 17 17 18 19 18 16 16 17 18 18 18 19 19 20 21 22 21 21 20 21 21 21 22 22 22 21 21 21 21 22 22 23 23 23 23 23 23 23
18 18 18 18 17 17 17 16 16 17 17 17 17 16 16 16 17 18 19 20 20 20 19 18 18 18 18 18 19 20 21 20 19 19 19 20 21 21 22 21 21 21 22 23
18 19 19 19 18 17 17 16 15 16 16 16 15 15 15 15 16 17 18 19 20 19 18 18 18 17 17 17 18 18 19 19 18 18 18 18 19 19 20 21 21 20 20 21
18 18 19 19 19 17 17 16 16 16 16 17 15 14 14 15 16 17 18 19 18 18 18 18 18 17 17 17 17 18 18 18 18 18 18 18 18 18 19 20 20 20 20 20
16 18 18 18 18 17 17 17 16 16 16 16 16 14 14 15 16 17 18 18 17 18 18 18 18 18 18 18 18 18 17 18 18 18 18 18 18 18 18 19 20 19 20 20
16 17 16 16 16 17 16 16 16 16 16 16 16 15 15 16 17 17 18 18 18 19 19 19 19 18 18 19 19 19 19 19 19 19 19 18 18 18 18 19 19 19 19 19
16 17 17 16 15 16 15 15 15 15 16 16 15 16 16 18 18 18 19 19 20 21 21 21 20 20 20 20 20 20 20 20 20 19 19 18 18 18 18 19 19 20 19 19
16 16 16 15 15 15 15 15 15 16 15 16 16 17 18 19 19 19 20 20 20 21 22 22 22 22 22 22 21 21 21 20 20 19 19 18 18 19 19 19 19 19 19 19
16 16 16 16 15 14 13 13 14 15 15 16 17 17 18 19 20 21 21 21 21 22 22 23 23 23 23 22 22 22 21 21 20 20 19 19 18 19 19 20 20 20 20 20
17 17 17 15 15 13 12 13 14 14 14 15 16 17 18 20 20 21 21 21 22 23 24 24 23 23 23 22 22 21 21 20 20 19 18 17 17 17 18 18 18 19 20 21
16 16 15 14 14 13 11 12 12 12 13 15 16 18 19 20 20 21 21 22 22 23 23 23 22 22 21 20 20 19 19 18 18 17 16 16 16 16 16 15 16 17 17 17
15 15 15 14 14 12 11 12 12 12 13 15 17 18 19 20 20 21 21 22 22 22 22 21 20 20 19 18 17 16 15 15 15 14 14 13 13 14 14 14 14 15 15 16
13 13 13 13 12 11 11 11 12 13 14 16 17 18 19 20 20 20 20 21 21 21 20 19 19 18 16 15 14 13 12 12 12 12 11 11 12 12 13 13 13 14 14 14
10 11 11 12 11 10 10 10 11 13 14 15 16 18 18 18 19 19 20 20 19 18 17 17 16 15 12 11 10 10 9 10 10 10 9 9 10 10 11 11 12 13 12 12
10 10 11 11 10 10 10 10 11 12 13 15 15 16 16 17 18 18 18 17 17 16 15 14 12 10 9 8 7 7 7 7 7 7 7 7 7 7 8 8 9 10 10 11
10 9 10 9 8 8 9 10 11 12 13 13 14 15 16 16 16 16 16 15 15 14 12 9 8 6 5 5 4 4 4 4 4 4 5 5 5 5 5 5 5 6 7 7
10 9 9 8 8 8 9 9 9 10 11 12 13 14 15 15 15 14 14 13 12 10 7 5 3 3 3 3 3 3 3 4 4 4 3 3 3 2 2 2 2 2 3 3
10 10 9 9 8 8 9 8 8 9 9 10 11 13 14 13 13 12 11 10 9 7 4 2 0 1 1 2 3 3 3 4 4 4 3 3 2 1 0 0 1 1 2 2
10 10 9 9 7 7 7 7 6 7 8 10 11 12 12 12 11 10 9 8 7 5 4 2 2 2 3 4 4 4 4 4 4 3 3 3 2 2 2 2 2 3 3 3

GEFSCGP_500_meanwind_108.txt.gz
Wind_Speed
13 14 14 15 15 15 15 15 16 18 17 17 17 17 17 17 17 18 19 20 21 22 23 23 24 25 25 25 26 27 28 28 28 27 27 27 27 27 28 29 30 31 31 30
14 15 15 14 13 13 13 13 15 16 16 16 16 16 16 15 16 17 18 19 21 22 23 24 24 25 25 26 27 28 28 28 28 28 28 27 27 28 28 28 28 29 30 30
14 15 14 13 12 13 13 13 15 15 14 14 14 14 15 16 17 18 19 20 21 22 23 23 24 25 26 27 28 28 28 28 28 28 28 28 28 28 28 27 27 28 29 30
14 14 13 12 12 13 13 14 14 14 12 13 12 12 16 16 17 19 20 20 21 21 22 23 24 24 25 27 28 28 28 28 28 28 28 28 28 28 28 28 27 27 28 28
14 13 12 12 13 13 14 14 13 13 12 11 12 11 16 16 18 19 20 21 22 22 22 23 23 24 25 26 26 27 27 27 27 28 28 28 28 27 27 27 27 27 27 28
13 13 12 13 13 13 13 13 12 12 11 12 13 12 15 16 16 18 19 20 21 21 21 22 22 23 24 24 25 25 25 25 26 27 27 27 27 26 26 26 27 28 27 27
12 12 12 12 13 13 12 11 10 10 10 12 15 14 16 17 17 18 19 19 20 19 19 20 21 22 23 23 23 23 23 23 23 24 25 26 26 26 25 25 26 27 27 27
11 12 13 13 13 13 12 11 11 11 11 12 16 15 17 17 18 18 18 18 19 19 20 21 21 22 21 21 21 22 22 22 22 23 24 25 26 26 26 25 25 25 26 26
12 14 14 13 13 13 12 12 12 11 11 11 14 15 16 16 16 17 17 18 19 20 20 21 21 21 21 20 20 21 22 21 22 23 23 24 25 25 25 25 24 25 25 25
14 14 14 14 13 13 13 13 13 10 10 11 12 14 15 15 16 16 17 18 19 20 20 21 21 21 20 20 20 21 21 21 21 22 22 23 23 23 23 23 23 23 24 24
15 14 14 14 14 14 13 13 12 12 12 12 12 14 16 16 17 17 18 19 19 20 21 21 21 21 21 20 20 20 20 20 20 21 21 21 21 22 22 22 22 22 22 23
15 15 15 15 15 14 14 14 13 13 14 14 14 16 16 17 17 18 18 19 20 20 21 21 21 21 21 21 20 20 19 20 20 20 20 21 21 21 21 21 21 21 21 21
14 15 14 14 14 14 15 14 14 14 14 15 14 17 17 17 18 19 19 20 20 21 21 21 21 21 21 21 20 20 20 20 20 20 20 20 21 21 21 21 21 21 21 21
15 15 15 15 15 15 14 14 15 14 15 15 15 17 19 18 19 20 20 21 21 21 22 22 23 22 22 21 21 21 21 21 20 20 20 21 21 21 21 21 21 21 21 22
14 15 16 16 16 15 15 15 15 15 15 15 16 18 19 19 20 20 20 21 22 22 23 23 23 22 22 22 21 21 21 21 21 21 21 20 21 21 20 20 21 20 20 21
14 14 15 15 15 14 14 15 15 15 16 16 16 18 18 20 20 21 21 22 22 22 23 23 22 22 22 22 21 21 21 21 21 20 21 20 21 21 20 19 20 20 19 19
13 14 13 13 13 12 13 14 14 14 14 15 16 17 18 19 20 21 22 22 22 22 23 23 22 21 21 20 20 20 20 20 20 20 19 19 19 19 18 18 18 18 17 17
12 13 13 12 12 13 13 13 13 13 14 15 16 17 18 19 20 20 21 22 22 22 22 22 21 20 19 20 19 19 19 18 17 17 17 17 17 17 16 16 15 16 15 15
11 12 12 12 12 12 12 12 11 12 13 14 15 17 18 19 20 21 22 22 22 22 21 21 19 19 19 18 18 17 16 15 14 14 14 14 14 13 13 13 14 13 13 13
10 11 11 11 11 11 12 11 11 11 12 13 14 16 17 19 20 21 21 21 21 20 19 18 18 17 16 16 15 14 13 12 11 11 11 10 10 10 10 11 11 11 11 11
9 9 9 9 10 11 11 10 10 10 12 13 14 16 17 19 20 20 20 20 19 18 16 15 14 13 13 13 12 11 10 9 9 9 9 8 8 9 8 9 9 9 9 9
7 8 8 8 9 9 9 9 9 10 12 13 14 15 16 18 19 19 18 17 16 15 13 12 11 11 10 9 9 8 7 7 7 7 6 7 7 7 7 7 7 7 6 7
7 7 7 7 8 7 7 8 9 10 11 12 14 15 16 17 17 17 16 14 13 13 11 10 8 7 7 7 5 5 4 4 5 5 5 5 4 4 5 5 4 4 4 4
6 7 7 7 7 7 7 7 8 9 11 12 13 14 15 15 16 14 13 12 12 10 8 6 5 4 4 2 2 2 2 3 3 4 4 3 3 3 3 2 2 2 2 2
6 7 7 6 7 6 5 6 7 9 10 12 12 13 13 14 14 13 12 11 9 8 6 4 3 2 1 0 1 2 3 4 4 5 5 4 4 3 3 2 2 1 1 1
6 7 6 6 6 5 5 6 7 8 9 9 10 11 12 12 12 12 11 10 8 7 5 4 3 2 2 2 3 4 5 6 6 6 6 5 5 5 4 4 4 3 3 3

GEFSCGP_500_meanwind_114.txt.gz
Wind_Speed
11 11 11 10 10 10 8 9 12 15 16 12 13 17 20 20 18 18 19 21 21 20 20 21 22 22 23 24 24 25 25 25 26 27 27 28 28 29 30 30 30 31 31 32
10 10 10 9 12 15 14 14 14 16 16 15 15 18 19 19 20 19 20 20 19 19 19 20 21 22 23 24 25 26 26 27 28 28 29 30 30 30 31 31 31 32 32 32
9 8 11 13 16 16 16 15 15 16 17 16 16 18 20 19 18 18 19 19 18 18 18 19 21 22 23 25 26 27 28 29 30 30 31 31 31 31 31 31 32 32 32 32
9 9 13 14 14 15 15 15 16 14 15 15 14 18 20 21 19 17 18 19 18 18 19 20 21 22 24 25 26 27 28 29 30 31 32 32 32 32 32 32 32 31 32 32
10 12 14 14 12 14 14 13 14 16 17 17 16 17 21 22 21 20 18 17 17 19 20 21 22 24 25 26 26 27 28 29 30 31 31 31 32 31 31 31 31 31 32 31
11 12 12 11 12 14 13 12 13 15 17 19 18 19 22 23 20 19 14 15 17 18 19 21 22 23 24 25 25 26 28 29 29 30 31 31 31 31 31 31 31 31 30 29
10 11 12 12 13 14 13 13 14 15 17 20 20 21 24 24 21 18 16 17 17 19 21 21 22 23 24 24 25 26 27 28 28 28 29 29 29 29 29 30 31 30 30 29
11 11 12 12 13 14 14 13 14 15 15 16 15 19 23 20 17 17 17 18 18 19 21 22 22 23 24 25 25 26 26 27 27 27 28 28 28 28 28 29 30 29 29 28
12 12 13 13 12 13 12 13 14 13 13 16 15 16 18 16 16 18 18 19 20 21 21 22 23 24 25 25 26 26 26 26 26 26 26 26 26 26 27 28 28 28 28 28
14 12 12 10 11 11 13 12 13 14 14 15 15 18 17 14 15 18 19 19 20 21 22 22 23 24 24 25 26 26 26 26 26 26 25 26 26 26 26 26 26 26 26 26
13 13 12 13 12 12 13 14 14 14 15 16 17 17 17 18 17 17 19 20 21 22 22 23 23 24 25 26 26 26 26 25 25 25 24 24 25 25 25 25 25 25 26 25
14 15 14 14 14 14 15 14 15 15 16 18 20 20 18 20 18 19 20 21 21 22 23 23 24 24 25 25 26 26 25 24 24 24 23 23 23 24 24 25 25 25 25 25
14 14 14 14 15 14 14 12 15 16 16 17 19 20 18 19 20 18 19 21 23 23 24 24 25 25 26 25 25 25 24 24 23 23 23 23 23 23 23 23 23 22 23 23
15 16 15 15 14 13 12 11 13 15 16 17 19 21 21 21 21 19 19 22 23 23 24 25 25 25 26 25 25 24 24 24 23 23 23 23 23 22 21 21 21 22 22 22
14 14 14 13 13 11 10 11 13 16 17 18 19 21 22 23 22 21 22 23 23 23 24 25 25 25 25 25 24 25 25 24 23 22 22 22 22 21 21 21 21 20 20 20
13 12 13 12 11 11 11 12 14 16 17 19 20 21 22 23 22 23 24 24 23 24 25 25 25 25 24 24 24 25 24 23 22 21 20 20 20 19 19 20 20 19 18 17
11 11 12 12 12 13 14 14 15 15 16 19 20 21 22 23 22 23 24 24 25 24 24 24 24 24 24 24 24 23 22 21 20 19 19 18 18 17 17 18 18 17 17 16
10 11 11 12 12 13 13 13 14 15 16 18 18 19 20 21 23 23 24 24 24 24 23 23 23 23 22 22 21 20 19 18 18 18 17 17 16 16 16 16 16 16 16 15
9 10 10 11 11 13 13 12 13 15 16 17 17 18 19 21 22 23 23 23 23 23 22 22 21 21 20 19 19 18 17 16 16 15 15 15 15 14 15 14 14 14 14 14
7 9 9 9 10 11 11 11 12 15 16 17 17 18 19 20 21 21 21 21 21 21 20 20 19 18 18 17 16 16 15 14 14 13 13 13 13 13 12 12 11 11 11 11
6 7 8 8 10 11 11 11 12 14 15 17 17 18 18 19 19 19 19 19 19 18 18 17 16 16 15 14 14 13 12 12 11 11 11 11 11 10 9 9 8 8 8 8
7 8 8 8 9 9 10 11 11 12 14 15 16 17 17 18 18 18 18 18 17 16 15 14 14 14 13 12 11 10 10 9 10 10 9 8 8 7 6 5 6 6 6 5
6 7 8 8 8 8 9 9 10 11 12 13 15 16 16 16 16 16 17 16 15 14 14 13 13 12 11 10 9 9 9 8 8 7 5 5 4 4 4 4 3 3 3 3
6 7 7 6 6 6 7 8 9 11 12 13 13 14 14 14 14 15 15 15 14 13 13 12 11 10 9 8 7 6 6 5 4 3 3 2 2 2 1 1 1 1 1 1
6 6 6 6 6 7 7 7 9 10 11 11 12 12 13 14 14 14 15 14 13 13 12 10 9 8 7 6 4 3 3 2 1 1 1 1 2 3 3 3 3 2 2 2
5 5 5 6 6 6 7 7 8 9 10 11 11 11 12 13 13 13 13 13 12 11 10 9 7 6 5 4 3 2 2 2 2 2 3 4 4 4 4 4 5 4 4 4

GEFSCGP_500_meanwind_120.txt.gz
Wind_Speed
13 13 12 12 12 13 14 14 13 12 10 10 11 12 14 16 17 18 19 20 19 18 18 17 16 16 16 14 13 13 13 14 15 16 17 19 20 21 22 23 25 26 26 27
13 13 13 15 15 15 15 14 12 11 11 12 13 15 17 18 18 18 19 19 19 18 17 16 15 15 16 15 15 14 15 16 17 18 19 21 21 22 24 25 25 26 27 27
13 13 15 15 16 16 15 14 12 11 12 13 15 18 20 20 20 19 19 18 17 16 16 15 14 14 16 15 16 16 16 17 18 19 21 22 23 24 24 25 25 26 27 27
14 14 15 15 16 16 16 14 13 13 15 14 16 19 20 22 20 19 19 18 18 17 16 15 15 15 16 16 17 17 18 18 19 20 21 22 23 24 24 24 25 26 26 27
13 14 14 15 14 15 15 14 14 15 17 17 19 21 21 22 22 21 19 19 20 18 17 16 16 17 17 18 18 18 19 19 20 20 22 23 24 25 25 25 26 26 27 27
14 15 15 14 13 12 15 16 16 17 19 19 20 22 22 23 23 23 22 21 20 17 17 17 18 18 18 19 19 19 20 21 21 22 23 23 25 25 26 26 26 26 26 27
14 15 15 14 13 13 15 17 17 18 19 20 20 21 22 22 23 22 22 21 19 18 18 18 17 18 19 19 19 20 21 22 23 24 25 25 26 26 26 26 26 26 26 26
12 13 14 14 14 14 16 16 17 18 20 20 21 22 21 21 22 21 21 19 15 14 14 15 16 17 19 19 20 22 23 24 25 25 26 26 27 27 26 26 26 26 26 26
11 12 13 14 14 15 15 16 16 17 17 18 20 20 19 19 19 21 21 18 15 14 14 15 17 19 20 21 22 23 24 25 25 26 26 26 26 26 26 26 26 26 26 26
10 10 12 13 14 16 15 15 16 16 16 17 17 17 17 17 17 17 17 17 15 15 15 16 18 19 21 22 23 24 24 25 25 25 25 26 26 26 26 26 26 26 26 25
10 10 12 13 15 16 16 16 16 16 16 17 17 16 17 16 15 17 17 16 15 14 16 17 18 20 21 22 23 24 25 25 25 25 25 25 25 25 25 25 25 25 25 25
11 11 11 13 15 16 17 17 17 17 16 17 18 17 17 17 17 16 16 15 14 14 15 17 19 20 21 22 23 24 24 25 25 25 25 25 25 24 24 24 25 24 24 24
11 12 11 12 15 16 16 17 18 18 17 16 17 17 15 15 16 15 16 15 15 15 16 18 19 20 21 22 23 23 24 24 24 24 24 24 24 23 23 23 23 23 22 22
11 12 12 12 14 15 16 16 17 17 17 17 17 17 17 18 17 16 16 16 16 16 17 18 20 20 22 22 23 24 24 24 23 23 23 22 22 22 22 21 21 21 21 21
11 11 12 12 13 15 16 16 17 16 15 16 16 17 17 18 18 18 18 19 18 18 18 19 20 22 23 23 23 23 23 23 22 22 21 21 21 20 20 20 20 19 19 18
11 10 11 13 13 13 15 15 15 15 15 15 15 16 17 18 18 18 19 19 19 20 19 20 21 21 22 22 22 22 22 22 22 21 20 19 19 19 19 19 18 17 16 15
10 10 10 12 13 12 12 12 13 14 14 14 15 16 18 18 19 19 18 19 20 20 20 20 20 21 22 22 21 21 20 20 19 18 18 18 17 17 16 16 16 15 15 15
7 8 9 10 11 12 11 12 12 12 12 13 15 16 16 17 18 18 18 18 19 19 20 20 20 20 21 20 19 19 19 18 17 17 16 16 15 14 14 15 15 14 14 13
6 7 8 8 9 8 9 11 10 10 10 12 14 15 15 16 16 16 17 18 18 18 19 19 19 19 18 17 16 16 16 15 15 14 14 14 13 13 13 13 13 13 12 12
4 4 4 5 5 6 7 8 8 9 10 11 12 13 13 14 15 16 16 17 17 18 18 17 17 17 15 14 14 14 13 13 12 12 11 11 11 11 11 11 11 11 10 9
2 2 2 2 3 4 5 6 7 9 10 11 12 13 13 13 14 15 16 16 16 16 16 16 15 14 13 12 11 11 11 11 10 9 9 8 8 8 8 7 6 6 5 5
2 2 1 2 3 3 3 4 6 8 9 9 10 11 11 12 14 15 15 15 15 15 14 13 12 11 10 9 9 9 9 8 7 6 5 5 5 5 4 3 3 2 3 3
2 1 2 3 2 3 4 4 5 6 7 7 8 10 11 12 12 13 14 14 13 13 12 11 10 9 8 7 7 7 6 6 5 4 4 4 3 2 1 1 1 0 1 0
3 2 2 3 2 3 4 3 4 6 7 7 8 9 11 11 11 12 13 13 12 11 11 10 8 8 7 6 5 5 4 4 3 2 2 2 2 1 2 2 3 3 2 3
4 3 3 3 3 4 5 4 5 6 7 7 8 9 10 11 11 11 11 12 11 10 9 9 8 7 6 5 5 4 3 3 3 2 3 3 4 4 4 4 4 5 5 5
4 3 3 4 5 5 5 4 5 6 7 7 8 9 9 10 11 11 11 11 10 9 8 7 7 7 6 6 5 5 5 4 4 5 5 6 6 6 7 7 7 7 7 7

GEFSCGP_500_meanwind_126.txt.gz
Wind_Speed
16 16 16 17 18 19 19 19 19 21 23 23 22 22 22 20 20 19 18 17 17 18 18 18 18 16 15 14 14 15 15 15 15 15 16 19 21 20 20 21 20 20 20 21
15 15 16 17 18 19 18 18 18 19 21 21 21 21 21 19 18 17 17 17 18 18 19 19 17 17 16 15 15 15 14 15 16 16 16 17 17 17 19 20 20 21 21 22
15 15 17 17 18 18 17 17 18 19 20 21 20 19 19 17 16 15 15 16 16 18 19 18 18 17 17 15 16 17 16 16 17 17 17 18 19 19 20 21 22 23 23 24
15 16 17 17 18 17 17 16 18 20 20 20 20 19 17 16 15 15 16 16 16 17 18 19 18 17 18 18 17 17 17 17 18 18 18 20 20 21 22 23 24 24 25 25
15 16 17 17 17 18 16 17 17 18 19 19 19 19 16 15 14 15 15 16 17 18 18 18 18 18 19 18 17 17 18 19 19 19 20 21 21 22 23 24 24 25 25 25
15 16 17 16 17 17 17 17 17 18 18 19 19 19 17 15 15 16 16 17 18 18 18 19 19 19 19 19 18 18 18 19 19 20 21 21 22 23 24 25 25 25 26 26
14 15 15 16 16 17 17 18 18 17 17 17 18 18 16 15 16 17 19 19 19 20 20 19 20 20 20 19 19 18 19 19 20 21 22 23 24 25 26 26 26 27 27 27
12 14 15 15 16 16 16 17 18 18 18 17 17 18 16 16 16 17 17 18 19 20 20 20 20 19 19 19 19 19 20 21 22 23 23 24 24 26 27 27 28 28 28 28
12 13 14 14 15 15 16 17 18 19 18 18 18 18 18 17 17 18 18 18 19 19 18 18 18 18 18 19 20 21 21 22 23 24 24 25 26 26 27 27 28 28 27 27
12 13 14 15 16 16 16 16 17 18 18 18 17 17 17 18 18 20 19 19 18 18 19 18 18 18 19 20 20 21 22 23 24 25 26 27 27 27 27 27 27 26 27 27
13 14 14 16 16 16 16 17 17 17 18 18 18 16 16 17 18 18 18 18 18 19 18 19 20 19 20 21 22 21 22 23 24 25 26 26 27 27 27 27 27 27 26 26
13 14 14 15 15 15 16 17 17 17 17 17 17 16 16 17 17 18 18 18 18 19 19 19 20 21 21 22 22 21 22 23 24 24 25 25 25 25 26 26 25 25 24 24
13 13 14 15 16 16 16 16 16 16 16 16 16 15 15 16 17 18 18 19 19 19 19 20 20 21 22 22 22 22 22 23 24 24 25 25 25 25 25 24 24 23 23 22
12 13 13 14 14 15 15 15 15 15 15 15 15 15 15 15 16 17 18 19 19 19 20 21 21 21 22 22 22 22 23 23 24 24 24 24 24 24 24 23 23 22 22 22
10 11 11 12 13 13 14 14 14 15 15 15 15 15 15 16 16 17 17 17 18 19 20 21 21 21 21 21 21 22 23 24 23 23 23 22 22 22 22 22 21 21 20 19
9 10 10 11 11 13 13 13 13 14 15 14 14 14 15 16 17 18 18 17 18 18 18 19 20 20 20 20 21 22 22 22 22 22 21 21 20 20 20 20 19 18 17 17
7 9 9 10 11 11 12 11 12 12 12 12 13 14 15 16 16 17 17 16 16 16 16 16 17 18 18 19 20 20 21 21 21 20 20 19 19 18 17 17 16 16 16 15
6 7 7 8 9 10 10 10 10 11 12 12 13 14 15 16 16 16 15 15 15 16 16 16 17 18 18 18 18 19 19 18 18 18 18 17 16 15 15 15 15 15 14 14
5 6 6 7 8 8 8 9 10 10 11 12 13 14 15 15 16 15 14 14 14 15 15 16 17 17 17 18 17 17 16 16 15 15 14 14 14 14 13 13 12 12 12 11
4 4 5 5 5 5 6 7 8 9 10 11 12 12 13 13 13 13 13 14 14 15 15 15 15 15 15 15 14 14 14 13 13 13 12 12 11 11 10 9 8 8 8 8
3 4 3 3 3 3 4 5 7 8 9 10 11 11 12 12 12 13 13 13 13 13 12 12 12 12 13 13 12 12 11 11 11 10 9 9 8 7 6 6 5 5 5 5
2 2 2 2 2 3 4 6 6 7 8 9 9 10 11 11 12 12 12 12 13 12 11 11 10 10 10 10 10 9 9 8 8 7 6 6 5 5 4 4 4 3 3 3
2 2 2 3 3 3 5 6 6 6 7 8 8 9 10 10 10 11 11 11 10 9 9 9 9 9 8 8 7 7 6 5 5 5 4 4 3 3 3 2 2 2 1 1
3 2 2 3 3 4 6 7 6 6 6 7 7 8 8 9 9 10 10 10 9 8 8 8 8 8 7 6 5 5 4 4 3 3 3 3 3 3 3 2 2 1 1 2
3 2 2 3 4 5 6 5 5 5 5 6 7 8 9 9 9 9 9 9 8 8 8 7 7 6 6 5 4 4 4 4 4 3 3 3 4 4 4 3 3 3 3 4
2 3 3 4 4 4 5 5 5 5 6 6 7 8 8 8 9 9 8 7 7 7 6 6 6 6 5 5 5 5 5 5 4 3 4 5 5 5 5 6 6 6 7 7

GEFSCGP_500_meanwind_132.txt.gz
Wind_Speed
15 15 15 16 17 18 17 17 18 19 19 18 19 20 20 20 20 20 20 20 20 21 20 20 19 19 19 19 19 19 19 19 20 20 20 21 21 23 24 25 25 26 26 27
14 16 16 16 16 16 16 17 18 19 19 18 18 19 20 20 19 19 19 19 20 21 21 20 19 19 19 19 19 19 19 19 18 19 20 21 21 22 23 24 25 26 27 27
14 15 15 15 15 15 15 16 18 18 18 18 18 19 18 18 18 18 19 19 19 20 20 19 20 20 19 19 19 19 19 19 19 19 20 21 22 22 22 23 24 24 25 26
14 14 14 14 15 15 15 16 17 17 16 17 17 16 18 17 17 17 17 18 19 20 20 20 20 19 19 19 19 19 19 18 18 19 20 20 20 21 22 22 23 23 24 24
14 14 14 15 15 15 16 15 16 16 16 16 16 15 17 17 17 16 17 18 20 20 20 20 20 19 19 19 19 19 19 19 19 20 20 21 22 22 22 23 24 24 25 25
13 13 14 15 15 16 15 15 15 15 14 15 15 14 16 17 16 17 17 18 20 20 20 20 20 20 20 20 20 20 20 20 20 21 22 22 22 23 23 24 25 25 26 27
12 13 14 14 14 14 14 13 12 12 13 14 16 15 16 16 15 16 17 19 20 20 21 21 21 21 21 21 21 21 21 21 21 22 22 22 23 24 25 26 25 26 26 26
10 12 13 13 14 14 14 14 13 13 13 14 17 16 15 15 15 15 16 18 19 19 20 20 21 20 20 20 20 21 21 21 22 22 23 23 24 25 25 26 26 26 26 26
11 13 13 13 13 13 14 14 15 14 14 14 15 16 16 16 16 16 17 18 18 19 19 20 20 20 21 21 20 20 21 21 22 23 23 24 24 25 25 25 25 25 26 26
11 12 12 12 13 13 14 14 15 13 13 13 14 15 16 16 17 17 17 17 18 18 19 20 20 20 20 20 20 21 21 22 23 24 24 24 24 25 25 25 25 26 26 27
10 11 12 13 14 14 14 15 14 13 14 13 14 15 16 16 16 17 17 17 18 19 20 21 21 21 21 21 22 23 23 23 23 24 24 24 25 25 25 26 26 26 26 26
10 11 12 13 14 15 15 15 14 14 15 14 14 16 17 17 17 16 17 18 19 19 20 21 22 22 21 22 22 23 24 24 24 25 25 25 25 25 26 26 26 26 26 26
10 10 11 11 13 14 15 14 14 14 14 14 14 16 16 16 16 16 17 18 18 19 20 21 22 22 23 23 23 24 24 24 25 25 25 25 25 25 25 25 25 25 25 25
9 10 10 10 12 13 13 13 14 14 14 15 15 16 16 16 16 16 17 17 18 19 19 20 21 21 22 23 24 24 24 25 25 25 25 25 24 24 24 24 24 24 24 23
8 9 10 11 11 12 13 13 13 15 15 14 15 15 16 16 16 15 16 16 18 19 18 19 20 20 21 23 23 24 24 24 24 24 24 23 23 23 23 23 22 22 22 21
7 7 9 10 11 12 12 12 13 14 14 14 15 15 15 15 15 16 16 17 17 18 18 19 19 19 20 22 22 23 24 24 23 22 22 22 22 21 21 21 20 20 19 19
6 6 7 8 9 9 10 10 11 12 13 13 14 15 15 15 15 16 17 17 17 17 17 17 17 17 19 20 21 22 22 20 19 19 19 19 19 19 18 18 18 18 17 17
6 6 6 7 7 9 8 9 10 11 11 11 12 13 15 15 14 15 15 16 16 16 16 16 17 17 17 18 18 18 18 17 17 16 16 16 16 16 15 15 14 14 14 13
4 4 5 6 6 7 7 7 8 10 10 10 11 12 12 12 13 13 13 14 14 14 14 14 14 15 15 15 15 15 14 14 14 13 13 12 12 12 12 12 11 11 11 11
2 2 3 4 5 6 6 6 7 8 8 9 10 10 10 10 10 11 11 12 11 11 11 12 12 13 13 12 12 11 11 11 11 11 11 10 10 9 9 10 10 10 10 10
1 1 3 3 4 5 5 5 6 6 7 8 8 8 9 9 9 10 10 10 9 10 10 11 11 11 11 11 10 10 10 9 9 9 9 9 9 8 8 8 7 7 7 7
1 2 2 3 3 4 3 4 4 5 6 6 6 7 7 7 7 8 8 8 8 8 9 9 9 9 9 9 9 9 8 8 8 8 8 7 7 7 6 6 6 5 4 4
1 1 2 3 3 3 3 4 4 5 5 5 5 5 5 5 6 6 6 6 6 6 7 7 7 7 8 8 8 7 7 7 6 6 6 5 4 4 4 3 3 3 2 2
1 1 2 3 3 3 4 4 4 4 4 4 4 5 6 6 6 6 6 5 6 6 7 6 7 7 6 6 6 6 6 6 5 5 4 4 4 3 2 2 2 2 2 2
0 1 2 2 3 3 3 3 3 3 3 3 4 5 6 6 6 6 6 5 5 6 6 5 6 6 6 6 6 6 6 5 5 4 4 5 5 4 5 5 5 4 4 4
0 1 2 3 3 4 4 4 3 3 3 4 5 5 5 5 6 6 5 5 5 6 5 5 5 5 6 5 6 6 6 6 6 5 5 5 6 6 6 6 6 6 6 6

GEFSCGP_500_meanwind_138.txt.gz
Wind_Speed
13 14 13 12 13 13 12 12 13 15 18 16 16 19 20 18 19 20 19 20 19 20 18 19 19 20 22 22 22 22 22 23 24 24 24 24 24 25 25 25 24 24 25 25
11 12 12 12 13 15 15 14 15 16 19 17 17 18 19 19 20 20 21 20 20 19 18 18 20 21 21 22 23 23 23 24 24 24 25 25 25 25 25 24 24 25 25 25
10 10 12 14 15 17 15 15 15 17 19 18 16 17 19 20 21 21 20 21 21 21 19 20 21 21 22 22 22 23 24 25 25 25 25 25 25 24 23 23 23 24 24 24
10 11 14 15 15 15 16 16 17 18 19 18 17 18 21 20 22 21 20 21 21 22 20 20 21 21 22 21 22 23 23 25 25 26 25 25 24 24 23 23 23 23 23 23
11 13 14 14 13 14 15 15 17 17 18 18 19 20 20 22 23 23 22 21 21 21 21 20 21 22 22 22 23 24 25 26 26 26 25 25 25 24 23 23 24 25 25 24
12 13 14 14 14 15 16 15 16 16 17 19 18 20 21 24 24 23 21 21 20 20 21 20 21 22 22 23 24 25 25 26 27 26 24 24 23 23 23 23 24 24 24 24
11 12 13 14 14 15 16 15 15 16 18 20 19 21 22 25 23 22 19 20 21 21 21 21 22 22 23 24 25 25 25 26 27 25 25 24 23 23 23 23 23 22 22 22
10 11 13 14 14 15 17 16 16 16 17 18 17 19 22 22 21 21 18 20 22 22 22 22 22 23 24 24 25 25 25 25 25 25 25 24 24 23 23 23 23 23 23 24
11 12 14 14 15 15 16 16 15 17 17 18 18 18 20 21 21 21 21 21 22 22 22 23 23 22 23 24 24 25 25 25 25 24 24 24 24 24 24 24 24 23 24 24
13 13 13 14 14 15 16 16 17 18 17 19 19 20 21 20 19 20 21 22 22 22 22 23 23 24 24 25 24 25 25 25 25 24 24 24 25 25 25 25 24 24 24 23
14 14 13 14 14 14 16 16 18 18 19 19 19 21 21 21 19 20 20 21 22 22 22 23 23 24 24 24 25 25 25 26 25 25 26 26 26 26 26 26 25 24 24 25
14 14 14 14 14 15 16 16 18 20 20 20 22 24 23 22 21 18 19 20 22 23 23 23 24 24 24 25 25 26 25 25 25 26 26 26 27 26 26 26 25 25 25 25
12 14 14 13 12 15 16 15 16 18 20 20 21 23 22 20 20 18 20 22 22 23 23 23 24 24 24 24 24 24 25 25 26 26 26 26 26 25 24 24 24 24 24 24
11 11 11 11 10 12 13 14 15 17 18 19 20 21 21 22 21 19 20 21 22 22 21 22 24 24 24 25 25 25 25 26 26 26 25 25 24 24 24 24 23 23 22 22
10 11 10 9 10 11 13 13 14 16 17 20 21 21 22 22 22 21 19 21 22 22 22 23 23 24 24 25 25 25 25 25 25 25 25 24 24 23 23 23 22 21 21 21
9 10 10 10 10 11 12 14 15 17 19 20 21 21 22 22 22 21 19 20 21 23 23 23 23 24 24 24 25 25 24 23 23 23 23 22 22 22 22 21 20 19 20 20
9 9 8 8 8 10 13 14 16 18 18 19 20 20 19 20 19 19 19 20 20 21 21 22 22 23 22 22 22 23 23 23 22 21 21 20 20 20 19 18 18 18 18 18
9 8 8 8 9 11 12 13 15 16 16 17 18 18 18 19 18 18 19 19 19 19 19 19 19 20 20 20 20 20 19 18 18 18 17 17 16 16 16 16 16 15 14 14
8 8 8 8 9 11 11 11 13 13 13 14 15 15 16 17 17 17 16 16 16 16 17 17 17 17 18 18 17 16 15 15 15 14 14 14 13 13 14 14 13 12 12 11
7 7 7 8 10 11 10 9 10 11 11 12 12 13 14 15 14 14 13 13 14 15 15 15 15 16 16 16 14 13 13 13 13 12 12 12 11 12 12 11 10 10 9 9
7 7 7 8 9 9 8 9 9 10 10 10 10 10 11 11 12 11 12 12 13 13 13 13 13 14 14 13 12 12 11 11 10 9 9 9 9 9 9 8 8 7 7 6
6 6 7 7 8 9 8 9 9 9 9 10 9 9 10 10 10 10 10 11 12 12 12 12 12 12 12 12 11 10 9 8 8 8 8 7 7 7 7 6 6 5 4 3
7 6 7 7 7 8 8 9 9 9 9 8 8 8 8 8 8 9 10 10 10 11 10 10 11 10 10 10 10 9 8 7 8 7 7 6 6 6 6 5 3 2 1 2
6 6 6 6 6 7 7 8 8 8 7 7 7 7 7 7 8 8 9 9 9 9 9 9 9 9 9 9 9 8 7 7 7 7 8 6 5 5 4 4 3 2 2 2
6 6 5 5 6 6 6 7 7 7 6 6 6 6 6 7 7 7 8 8 8 8 9 9 9 8 8 8 8 8 8 8 8 7 7 7 6 6 5 4 4 4 4 3
4 4 4 4 5 6 6 6 6 5 5 5 4 5 5 6 7 8 7 7 7 7 7 7 8 7 8 8 9 9 9 9 8 8 8 7 7 6 6 6 5 6 6 6

GEFSCGP_500_meanwind_144.txt.gz
Wind_Speed
15 17 16 16 16 17 17 17 15 13 13 14 14 14 15 16 17 15 15 17 17 17 18 19 20 21 20 18 18 19 19 20 22 22 23 23 23 22 22 22 22 23 23 23
14 15 15 15 17 18 18 16 14 12 13 13 13 14 16 17 17 18 18 18 18 18 19 21 21 21 20 19 19 20 20 21 22 22 23 23 23 23 24 23 23 23 23 23
14 15 16 17 17 18 18 16 15 13 13 12 14 16 16 17 19 19 19 19 18 19 20 21 21 21 21 21 20 21 22 22 22 22 22 22 23 23 24 24 24 24 24 24
15 16 17 16 16 16 16 16 16 16 16 16 16 17 17 18 20 20 20 19 20 19 20 21 22 21 20 21 21 22 22 23 23 23 23 23 23 24 24 24 24 24 24 24
16 16 15 15 14 15 15 16 17 18 19 19 19 20 20 21 22 22 21 20 21 20 21 21 20 19 19 20 21 21 22 23 23 23 23 24 24 24 24 24 24 24 24 24
16 17 15 14 14 14 15 17 19 19 19 20 19 21 21 22 22 23 23 22 21 20 20 20 19 18 19 20 20 21 22 22 23 24 24 24 24 24 23 23 24 24 24 24
15 14 13 13 13 14 15 16 19 21 22 22 20 22 23 23 22 22 23 23 22 20 20 20 19 19 20 20 21 21 22 23 23 24 24 24 24 23 23 23 24 24 23 23
14 13 12 12 13 14 15 17 18 19 21 22 23 25 24 24 24 23 22 20 20 20 19 20 19 20 20 21 21 22 23 24 24 24 24 23 23 24 23 23 23 23 22 22
12 12 12 13 13 14 15 16 18 20 19 20 22 25 25 23 22 21 20 21 21 19 18 18 20 20 20 21 21 22 23 23 24 24 24 24 24 24 24 23 24 23 23 23
12 12 13 14 15 15 16 16 18 20 20 20 21 22 22 20 20 21 21 21 21 19 18 18 19 19 20 21 22 23 24 24 25 25 25 24 24 24 24 24 24 24 23 22
12 12 13 14 15 16 17 17 18 19 20 20 21 21 20 20 21 21 22 22 21 19 19 19 19 20 21 22 22 23 24 24 25 25 25 24 24 25 25 25 24 24 23 22
11 12 13 14 15 16 17 18 19 20 20 21 23 23 21 21 21 22 21 21 21 21 21 21 20 21 22 23 23 24 24 25 25 25 25 24 24 24 24 24 23 23 22 22
11 12 12 13 15 16 18 18 18 19 20 21 22 23 22 21 21 20 20 20 20 21 21 20 21 22 22 22 23 23 24 24 25 24 24 24 24 23 23 22 22 21 21 20
11 12 12 12 13 15 16 16 17 18 20 20 20 20 21 21 21 21 20 20 19 19 19 19 18 20 21 22 23 23 24 24 24 24 23 23 23 22 22 21 21 20 20 19
10 11 11 12 13 14 14 15 16 18 18 19 18 18 19 19 19 19 18 18 19 18 19 18 18 19 20 21 22 22 23 23 22 21 21 22 22 21 21 20 19 19 18 18
11 11 10 10 12 13 14 15 15 15 16 17 17 17 18 18 18 17 16 17 17 18 18 18 18 18 19 20 20 21 21 21 20 20 21 21 20 19 18 17 17 16 16 15
11 11 10 10 11 12 13 12 13 13 14 15 16 17 17 17 17 17 17 17 16 16 17 17 18 18 18 18 18 19 19 19 19 19 18 17 16 16 15 15 15 15 15 13
11 11 11 11 11 11 10 10 11 11 12 13 14 14 14 15 15 16 16 16 16 15 15 15 15 16 16 17 17 18 18 17 17 16 14 13 12 12 12 12 13 12 11 11
10 10 10 9 11 11 9 9 11 12 11 11 11 11 11 12 13 13 13 14 14 14 13 13 14 14 15 16 16 16 16 15 13 12 11 10 9 9 9 9 9 8 8 8
9 9 10 10 11 11 9 9 9 10 10 9 9 9 9 10 10 10 11 11 12 12 11 11 12 13 14 14 14 14 13 12 11 10 9 8 8 8 8 7 6 6 6 6
8 9 9 10 10 10 8 9 8 8 8 8 9 8 8 9 9 9 8 8 9 10 10 10 11 11 12 12 13 12 11 11 9 8 7 7 7 7 6 5 4 4 4 3
7 8 8 8 8 8 8 8 8 8 7 7 7 7 7 8 8 7 7 7 8 8 9 9 9 9 11 11 12 11 10 9 8 7 6 6 6 5 4 4 4 4 3 3
7 7 7 7 7 7 7 8 7 7 6 6 6 6 6 6 5 5 5 6 7 8 8 8 8 8 10 11 12 12 10 9 8 6 5 5 5 5 4 3 3 3 2 2
6 6 6 6 6 5 5 5 5 5 5 5 5 4 5 5 4 4 5 5 6 7 7 7 7 7 9 10 11 11 10 9 7 7 6 5 5 4 4 4 4 4 4 4
5 5 5 4 4 4 4 3 4 4 5 4 4 4 4 4 4 4 5 5 5 6 6 7 7 7 8 9 11 11 10 9 8 7 6 6 6 5 6 6 5 5 4 4
4 4 4 3 3 4 4 4 4 4 4 4 4 4 4 4 3 4 4 4 5 5 6 7 7 7 8 9 10 10 11 10 9 8 8 7 7 7 6 6 6 5 5 4

GEFSCGP_500_meanwind_150.txt.gz
Wind_Speed
16 17 18 20 20 21 22 22 23 23 23 23 22 21 19 18 16 16 16 17 17 17 17 18 19 20 21 22 22 22 22 22 21 21 22 22 23 24 24 25 24 24 24 24
16 17 18 19 19 20 21 21 22 22 22 22 22 21 20 18 17 17 17 16 17 18 18 18 18 20 22 23 23 22 22 21 22 22 22 23 24 25 26 25 25 25 24 24
15 16 17 18 18 19 20 20 21 21 22 23 23 22 20 19 18 18 17 17 17 18 18 19 20 21 22 22 21 21 22 22 23 23 23 24 25 25 25 25 25 25 26 26
14 15 16 16 17 18 19 20 21 22 22 22 22 20 19 19 18 18 18 17 17 18 19 19 20 21 21 20 21 21 22 22 22 23 23 24 24 25 25 25 25 25 26 26
14 15 16 16 17 18 20 21 22 23 23 23 22 22 20 20 20 20 19 19 20 20 21 21 21 20 20 21 21 21 22 22 22 23 23 25 25 25 26 27 26 26 27 27
14 15 15 16 17 19 20 21 22 23 23 23 23 23 22 22 22 22 21 21 21 22 23 22 21 20 21 21 22 22 22 22 23 24 24 25 26 26 27 27 27 26 26 26
14 15 16 17 18 19 19 21 22 23 23 23 23 25 23 22 22 22 22 22 22 23 22 20 20 21 22 23 24 23 23 23 23 24 25 25 26 26 26 26 26 26 26 26
13 15 16 17 18 19 19 19 20 22 22 23 24 25 23 23 23 22 22 21 20 21 20 20 20 21 21 22 24 23 24 25 24 24 25 26 26 26 25 25 25 26 26 27
13 14 15 16 17 18 18 18 19 20 21 22 22 23 23 23 23 22 22 21 21 21 20 21 20 21 21 22 23 24 25 25 25 25 26 26 26 25 26 26 26 27 26 26
12 14 14 16 17 17 18 18 18 19 21 22 22 21 21 21 21 21 20 21 21 20 20 21 21 21 22 23 24 24 24 25 25 26 26 27 26 26 26 27 28 28 27 26
12 13 14 15 16 17 18 18 19 20 21 22 22 22 21 20 20 20 20 20 20 20 20 21 21 21 21 22 23 24 24 24 25 26 27 27 27 27 27 27 27 27 26 26
11 13 14 15 16 17 18 19 19 20 22 23 23 22 21 20 21 20 20 20 19 19 20 20 21 21 22 22 23 24 25 25 26 27 27 27 27 26 26 26 25 25 25 25
12 13 15 16 16 16 17 18 19 20 22 23 23 22 20 20 20 20 19 19 19 19 20 20 21 21 22 23 23 24 25 25 26 26 26 26 26 25 25 25 25 24 24 23
12 14 15 16 16 16 16 17 19 19 20 21 21 20 20 20 19 19 19 18 18 19 19 19 21 21 22 23 23 24 25 25 24 24 23 24 24 24 24 24 24 23 23 23
12 13 14 15 16 16 16 17 18 19 19 20 19 19 19 19 19 19 18 18 18 18 19 20 21 21 22 22 23 23 23 23 23 23 23 23 23 23 23 22 21 20 19 19
14 14 14 15 16 16 16 16 17 17 17 18 18 18 17 18 17 17 17 17 17 17 18 19 20 20 20 20 21 21 21 21 20 20 20 20 20 20 20 19 18 17 16 16
14 15 15 15 16 16 16 15 15 16 16 16 17 17 16 15 16 16 17 16 16 16 17 18 18 18 18 17 18 19 19 18 18 18 18 18 17 16 16 15 14 13 13 13
14 14 15 15 15 15 13 12 13 14 15 15 16 16 16 15 14 15 14 14 14 15 15 15 14 14 15 15 17 16 16 16 16 16 16 16 15 14 13 13 11 11 10 10
14 15 15 15 15 14 13 13 13 13 13 14 14 14 14 13 13 13 13 12 12 12 12 12 12 12 13 15 14 14 15 15 15 15 15 14 13 12 11 10 9 9 9 8
14 14 15 14 14 14 13 12 12 12 13 13 13 13 12 11 11 11 11 11 11 11 10 10 10 11 12 13 13 14 14 13 13 13 12 11 11 10 9 8 8 8 8 7
14 14 14 14 14 13 12 12 12 12 12 13 12 12 11 10 10 9 8 8 8 8 9 9 9 11 11 11 12 13 13 12 11 11 10 9 9 8 7 7 8 7 6 6
14 14 14 14 14 13 12 12 12 12 12 12 11 10 9 8 8 7 6 5 6 6 7 8 9 10 10 10 11 12 12 11 11 11 10 9 8 7 7 7 7 7 6 6
13 13 13 13 12 12 12 11 11 11 10 9 8 7 6 6 6 5 5 4 5 6 6 7 7 7 8 9 10 11 11 12 11 10 9 9 8 7 7 7 7 7 6 5
13 11 11 11 10 10 10 10 9 9 8 7 6 5 4 4 3 4 4 4 5 5 6 6 6 6 7 8 9 10 11 11 10 10 9 9 8 7 7 7 7 7 7 6
12 11 10 10 9 9 8 8 7 7 6 5 5 4 4 3 3 3 3 3 4 4 5 5 5 6 7 8 8 9 11 11 11 11 10 9 8 8 8 8 8 8 8 7
11 10 10 8 8 7 6 5 5 5 4 4 3 3 3 2 2 1 2 2 3 4 4 5 5 6 7 7 8 9 10 11 11 11 11 10 10 9 8 8 8 8 8 8

GEFSCGP_500_meanwind_156.txt.gz
Wind_Speed
9 10 11 14 16 16 16 16 16 17 17 17 17 18 19 19 20 20 19 19 18 18 19 20 20 20 20 21 21 23 24 25 26 26 26 26 25 25 25 25 24 25 26 26
9 11 12 13 15 16 16 16 16 17 18 17 18 18 19 19 20 20 20 19 19 19 20 20 20 20 20 21 22 23 24 25 25 25 25 25 26 26 26 25 25 26 26 26
10 11 12 13 13 14 15 16 17 17 17 17 18 18 20 19 20 21 21 21 21 20 20 20 20 21 22 22 23 24 24 23 23 24 24 25 26 26 26 26 26 26 26 27
10 11 12 12 13 14 14 16 16 17 16 16 17 16 20 20 20 20 21 22 22 22 22 22 22 22 22 23 24 25 25 24 24 24 24 25 25 25 25 26 27 27 28 27
10 10 11 12 13 14 15 15 16 16 17 17 18 18 18 21 20 20 21 21 21 22 22 22 22 22 22 23 24 25 25 24 24 23 24 24 24 24 25 26 27 27 27 27
10 11 12 13 13 13 14 15 15 16 17 17 18 18 18 21 20 20 20 20 20 21 22 23 22 22 23 23 24 24 25 25 24 24 24 24 25 25 25 26 27 28 28 27
9 10 11 12 12 13 13 13 12 13 15 16 19 19 19 21 20 20 20 20 20 21 21 22 22 22 23 23 24 25 25 25 25 25 24 25 26 26 26 27 28 28 28 28
9 10 11 12 12 13 13 13 13 14 14 16 19 19 19 20 20 20 20 20 20 20 21 22 22 23 23 24 24 25 24 24 24 25 25 26 27 27 27 27 27 28 27 27
10 11 12 12 12 13 14 14 16 16 16 16 18 19 20 19 19 18 18 18 18 20 21 21 22 22 23 23 24 24 24 24 24 25 27 27 28 28 27 26 27 27 27 27
11 12 13 12 13 14 15 16 17 16 16 17 17 18 17 18 17 17 17 17 18 19 20 21 21 22 23 23 24 24 23 24 25 26 27 28 28 27 27 27 27 26 26 25
12 12 13 13 13 14 15 16 17 17 17 17 17 18 19 19 17 17 18 18 18 19 20 20 21 21 22 22 23 23 23 24 25 25 26 26 26 26 25 25 25 25 25 25
12 12 12 13 13 13 14 15 15 16 17 18 18 19 19 19 18 17 17 17 18 19 20 20 20 21 21 22 22 23 24 25 25 25 25 25 25 25 25 25 25 25 25 24
11 11 11 12 13 14 15 15 15 16 17 17 17 18 19 18 18 18 18 17 18 18 19 19 19 20 21 21 22 22 24 24 24 24 24 24 24 24 24 24 24 24 24 23
12 12 12 13 14 15 15 15 15 15 16 17 17 17 18 17 17 17 17 17 17 17 18 17 18 19 20 20 21 22 23 23 23 24 23 23 22 23 23 22 22 21 21 21
13 14 14 15 15 16 16 16 16 16 16 16 17 18 18 18 17 17 17 17 17 17 17 17 18 18 19 20 20 21 22 22 22 22 21 21 21 21 21 21 20 20 19 19
14 14 15 15 15 15 16 16 16 16 16 16 17 17 17 18 17 17 17 16 16 16 16 17 17 17 18 19 19 20 20 19 19 20 19 19 19 19 19 18 17 17 17 16
15 15 15 15 15 16 16 15 16 16 15 16 17 17 17 17 17 16 15 15 15 15 15 15 16 17 17 17 17 18 18 18 19 19 18 17 17 16 16 16 15 14 14 14
16 15 16 16 16 17 16 16 16 16 16 15 15 15 15 15 14 14 14 15 15 14 14 14 14 14 14 15 15 17 17 17 18 17 16 16 15 14 13 14 13 13 13 13
17 16 16 16 16 17 16 15 15 15 15 15 15 15 14 13 13 13 13 14 14 14 12 12 12 13 13 14 15 16 15 16 16 16 15 14 13 12 12 12 12 11 11 10
17 16 16 16 16 17 16 14 14 14 14 14 14 13 13 12 12 12 12 12 11 10 10 10 10 11 11 13 14 14 14 14 15 14 13 12 11 10 10 10 10 9 9 9
17 17 16 16 16 16 15 14 13 13 14 13 13 12 12 11 11 10 9 9 9 8 8 8 9 10 10 11 12 12 12 12 12 12 11 11 9 8 8 8 8 8 8 8
17 17 16 15 15 15 13 12 12 12 12 12 11 10 9 9 9 8 8 7 7 7 7 7 8 8 9 9 11 11 10 10 10 10 10 10 9 8 8 7 8 8 7 7
17 16 15 14 14 13 12 12 12 11 10 9 8 8 8 7 7 6 6 6 6 6 5 6 6 7 7 8 10 9 8 9 9 9 10 9 9 8 7 7 8 8 8 8
16 15 14 13 13 12 12 12 11 10 8 7 7 7 7 6 5 5 5 5 5 5 4 4 4 5 7 7 8 8 8 8 8 9 9 9 8 8 7 7 8 8 8 8
14 13 12 12 11 11 11 10 9 8 7 6 6 6 6 6 5 4 4 3 3 2 2 3 4 5 6 7 7 7 7 7 8 9 9 9 9 9 9 9 9 9 8 8
13 12 12 11 10 10 10 9 8 7 6 5 5 5 5 5 4 4 3 2 1 1 1 3 3 4 5 6 6 7 7 8 8 9 9 10 10 10 10 10 9 9 9 9

GEFSCGP_500_meanwind_162.txt.gz
Wind_Speed
6 7 6 7 8 11 13 15 14 15 16 15 16 18 20 19 22 23 23 22 22 22 22 22 21 21 21 21 21 22 23 25 26 27 28 29 30 30 30 31 30 29 28 28
5 5 7 9 11 10 11 13 13 13 15 16 17 18 19 20 22 23 23 22 22 23 22 23 23 23 24 23 24 24 25 26 27 28 29 29 30 30 30 30 29 29 29 29
5 7 8 9 10 10 11 12 11 14 16 17 17 18 21 23 23 23 24 23 22 23 24 24 24 24 24 24 24 25 26 27 28 28 29 30 30 31 30 30 29 28 28 29
6 8 9 10 10 10 11 13 13 15 16 16 18 20 20 23 23 22 24 24 23 22 25 25 24 25 24 25 25 26 26 27 28 29 30 30 31 30 29 29 29 28 28 28
7 8 9 10 11 12 13 13 15 14 15 17 18 21 21 22 22 22 22 24 24 23 25 23 24 24 24 24 25 26 27 28 29 30 29 29 30 30 29 28 29 29 29 29
7 9 10 11 12 14 14 13 12 12 15 19 18 20 22 22 22 22 23 22 22 23 24 23 23 23 24 24 25 26 27 28 29 28 28 29 29 28 29 29 29 30 29 29
7 8 10 10 11 12 12 10 11 13 15 18 18 19 22 22 22 23 23 22 23 23 23 23 23 23 23 24 25 26 27 28 28 28 28 29 29 29 29 29 29 29 28 28
8 8 9 11 11 12 11 10 13 16 16 16 17 18 19 21 22 23 24 23 23 24 22 22 21 22 23 24 25 26 27 28 27 28 28 29 29 29 29 28 27 26 26 26
10 9 9 10 10 9 9 10 13 17 17 17 17 21 21 19 20 21 22 22 22 22 22 21 22 22 23 24 25 26 27 28 27 27 28 28 28 27 27 26 26 25 25 25
12 11 11 12 11 12 11 13 14 16 17 18 18 18 21 19 19 20 21 20 20 21 21 21 22 23 23 24 25 25 26 27 27 27 27 26 26 26 26 25 25 25 25 24
14 13 12 12 14 13 13 15 16 17 18 18 20 20 18 18 18 19 21 20 20 21 22 21 22 22 23 23 24 24 25 25 26 26 26 26 26 25 25 25 25 25 24 24
15 15 14 13 13 14 15 16 17 17 18 18 20 23 21 19 18 19 20 21 22 22 22 22 22 22 22 23 23 23 24 24 25 25 24 24 25 25 25 25 25 24 24 23
15 15 15 13 12 14 15 15 15 17 18 19 20 23 22 20 22 21 21 22 22 22 22 22 22 23 23 23 23 23 23 23 24 23 23 24 24 24 24 24 23 23 23 23
14 15 16 15 15 16 15 15 16 17 19 20 22 23 22 22 23 21 22 23 23 22 23 22 22 22 23 23 22 22 22 23 23 22 22 23 23 22 22 22 21 22 22 21
16 15 16 16 15 15 17 17 16 18 19 21 22 24 23 22 23 22 22 21 21 21 21 20 20 21 22 21 21 21 21 22 22 21 21 22 22 22 21 20 20 20 20 20
17 16 16 16 16 16 17 18 18 19 20 21 22 23 22 23 23 23 22 21 19 19 20 19 20 20 20 20 20 20 20 21 20 20 21 22 22 21 20 19 19 18 18 18
18 17 17 16 16 17 18 18 18 19 19 20 22 23 24 24 22 22 21 20 20 18 18 18 18 18 18 19 19 20 19 19 19 20 20 21 20 19 17 17 18 17 17 17
18 18 17 17 17 19 17 16 18 18 19 20 21 22 23 23 22 21 20 19 18 17 17 17 17 17 18 18 18 17 17 18 19 19 20 20 18 17 16 16 15 15 16 16
19 18 18 18 19 19 18 17 18 19 20 21 21 20 21 21 21 20 18 18 17 16 16 16 17 16 17 17 17 17 17 18 17 18 18 18 17 16 15 15 15 14 14 14
20 19 19 19 20 22 18 19 18 19 20 20 19 19 19 19 19 18 17 16 15 15 15 16 16 15 15 14 15 16 16 16 16 16 17 16 15 15 14 14 14 13 13 13
21 20 20 20 21 21 18 18 19 20 20 19 18 18 18 17 17 17 16 15 14 14 14 13 13 13 13 13 13 14 14 13 14 14 15 15 14 14 14 13 12 12 12 12
22 21 21 20 20 18 17 17 19 19 19 19 18 17 16 16 15 14 14 14 13 12 12 12 12 12 12 12 12 11 11 11 12 13 14 14 13 13 12 11 11 12 12 12
22 21 21 20 19 17 16 18 19 19 18 17 16 16 15 15 14 13 12 12 12 11 10 11 11 11 11 10 10 10 10 11 12 12 13 13 12 12 12 12 12 12 12 12
22 20 21 21 19 19 18 18 18 17 17 16 15 14 13 13 12 11 11 11 11 10 10 10 9 9 9 8 8 9 9 10 11 12 12 12 12 12 12 12 13 13 13 13
23 21 22 21 20 18 18 18 17 15 15 15 13 12 12 11 10 10 9 9 9 9 8 8 7 7 7 7 7 8 8 9 10 10 11 12 12 12 12 13 13 13 13 14
23 22 21 21 19 19 18 17 16 13 12 12 11 11 9 8 8 8 8 8 7 7 7 7 7 6 5 6 7 7 8 8 8 10 11 12 12 12 13 13 13 14 14 14

GEFSCGP_500_meanwind_168.txt.gz
Wind_Speed
10 12 12 11 11 10 11 12 13 14 14 16 16 17 18 18 19 18 19 20 21 20 21 20 18 19 19 20 20 21 21 21 22 23 24 24 25 25 25 26 26 27 27 27
9 10 10 10 9 9 10 11 11 12 13 15 16 17 19 20 20 20 20 20 22 22 22 22 19 19 20 21 19 20 20 21 22 24 25 24 25 25 26 27 27 28 28 28
8 7 7 8 9 8 8 9 11 12 13 15 16 17 17 19 20 20 20 20 20 22 23 21 22 22 21 21 20 19 19 20 22 23 23 23 25 26 26 27 27 28 28 28
6 7 6 6 7 7 8 9 11 12 14 14 16 17 17 19 20 21 21 22 21 22 23 23 21 19 18 19 19 20 20 20 21 22 23 24 25 25 26 26 27 27 28 28
3 4 5 5 5 6 7 10 12 14 15 15 15 18 17 19 19 20 21 22 22 22 21 19 18 19 19 19 19 21 21 21 22 22 23 25 25 26 26 27 26 26 27 27
3 4 5 6 6 7 8 10 12 13 14 15 15 17 17 16 17 18 18 19 20 20 19 18 17 17 18 18 20 21 21 21 22 23 24 25 25 26 26 26 26 26 27 26
4 5 6 8 8 9 11 12 13 13 14 14 15 17 16 17 16 15 15 15 16 17 17 17 17 18 17 18 19 20 21 21 22 23 24 25 25 25 26 26 26 26 26 26
6 6 8 9 10 11 12 13 14 15 15 16 16 17 17 17 16 16 16 15 15 15 16 17 17 17 18 19 20 20 21 22 23 24 24 25 25 25 25 25 26 25 25 24
9 9 9 11 11 12 12 14 15 16 17 17 18 18 18 17 16 17 17 17 16 16 16 16 16 17 18 18 19 20 21 21 22 23 24 25 24 24 24 24 25 24 24 23
11 11 10 11 11 13 14 16 17 18 18 18 17 18 18 18 17 16 17 15 15 15 16 17 17 18 18 18 18 20 20 21 22 24 24 24 23 23 23 24 24 23 23 23
13 12 11 12 13 14 15 16 18 19 19 19 19 18 17 17 16 17 16 14 15 15 15 17 18 19 18 19 19 20 20 22 23 24 24 23 23 23 23 23 23 23 22 22
14 14 13 13 12 13 14 15 17 18 18 18 20 19 18 17 16 16 16 15 15 16 16 17 18 19 18 19 20 20 20 21 22 23 23 22 22 22 22 22 22 22 22 21
15 16 15 14 14 14 15 16 18 18 18 19 20 20 18 18 17 17 17 17 16 16 15 16 17 17 17 19 19 19 20 21 21 22 22 20 21 21 21 21 21 21 21 21
17 17 16 15 14 15 16 16 17 18 18 18 18 19 18 18 18 18 19 19 18 17 17 16 17 16 17 18 19 20 20 21 21 21 20 19 20 20 20 20 21 21 20 20
17 17 16 15 15 16 17 17 17 18 18 17 17 18 18 18 18 18 19 20 19 18 16 16 16 16 17 17 19 20 19 20 21 20 19 19 19 19 19 19 19 19 18 18
18 18 17 16 15 16 17 17 18 18 17 17 17 18 18 18 18 19 19 19 18 16 16 16 16 16 16 17 18 18 19 20 20 19 18 18 18 17 17 17 17 16 15 16
19 20 19 18 18 18 17 16 17 17 16 17 18 18 18 17 18 18 19 20 18 16 16 16 16 15 15 16 17 17 18 19 18 17 17 16 16 15 15 15 15 14 14 15
20 20 20 20 20 21 17 16 17 17 17 17 18 18 18 17 18 18 18 18 17 15 15 15 14 14 14 15 16 17 17 16 16 15 16 16 15 14 14 14 15 14 14 15
21 21 21 22 22 21 17 17 17 18 17 17 17 17 18 18 18 17 17 16 16 15 13 13 13 13 15 15 15 15 14 14 14 14 14 14 13 13 14 14 14 14 14 14
21 21 21 22 22 22 19 18 18 17 16 15 16 16 17 17 17 16 15 14 13 12 11 11 12 13 13 13 13 13 13 13 14 13 14 13 13 13 13 14 14 13 14 14
21 22 22 23 23 22 20 19 18 18 16 16 16 16 17 17 16 14 13 13 12 12 11 11 12 12 11 11 12 12 12 12 13 12 12 12 12 12 13 13 13 13 13 14
23 23 23 23 23 21 19 18 17 16 15 15 16 15 15 15 14 13 12 12 12 12 11 11 12 11 10 10 11 11 11 11 11 10 10 11 11 12 12 12 13 13 13 13
24 23 23 23 22 21 19 18 17 16 16 16 16 15 15 14 13 12 12 12 11 10 10 10 11 10 9 9 10 10 10 10 9 9 10 10 11 11 12 12 13 13 13 13
23 22 23 22 21 19 17 17 16 16 17 16 15 14 13 12 11 10 9 9 9 8 7 8 9 8 8 8 8 8 9 9 9 9 9 9 10 11 11 12 13 13 13 14
22 22 21 22 19 18 17 17 17 17 15 14 14 12 11 10 9 8 7 7 6 6 7 7 7 7 7 7 7 8 8 8 8 8 8 8 10 11 11 12 13 14 14 15
21 21 20 19 17 18 17 17 17 17 15 13 13 11 10 8 6 6 7 7 6 6 6 7 7 6 6 6 7 7 7 7 7 7 8 8 9 10 11 12 13 14 15 15

GEFSCGP_500_meanwind_174.txt.gz
Wind_Speed
8 9 10 11 12 13 14 15 16 17 17 18 18 18 18 19 20 19 19 20 20 19 19 20 21 20 19 18 19 19 20 21 21 21 22 22 22 23 24 25 27 27 27 28
8 9 10 10 11 13 14 15 15 17 17 18 18 18 18 19 19 19 19 19 20 20 20 20 20 19 18 19 20 20 20 20 19 20 21 22 22 22 23 24 26 27 28 28
7 8 9 10 11 12 13 13 15 16 17 18 18 18 19 19 19 19 20 20 19 19 20 20 20 19 19 19 19 20 20 20 20 19 20 21 22 23 24 25 26 26 27 27
6 8 9 10 11 13 13 14 15 16 17 18 18 19 18 19 20 20 19 19 18 19 20 19 19 19 18 18 18 19 20 20 19 19 20 21 22 23 24 25 26 26 26 27
5 6 8 10 12 13 14 14 15 16 16 17 18 19 17 18 19 20 19 18 18 18 18 17 17 17 18 18 18 19 19 19 20 19 20 21 22 23 24 24 25 25 26 26
6 7 9 10 11 13 14 14 15 16 17 16 17 19 18 18 18 18 18 18 18 18 18 18 18 18 18 19 19 20 20 20 19 19 20 21 23 24 24 24 25 25 26 26
7 8 10 11 12 13 14 15 16 16 17 17 17 18 18 18 17 17 17 17 17 18 18 18 17 18 18 20 20 20 19 19 19 20 21 22 23 23 23 24 25 25 26 26
8 10 11 12 13 14 15 16 17 17 18 17 16 17 17 17 16 17 17 18 17 17 17 17 17 18 18 19 19 19 18 19 19 20 21 23 23 23 24 25 25 25 25 25
10 10 12 13 14 15 15 16 18 19 18 18 17 16 16 17 17 16 17 17 17 17 18 18 18 19 18 18 18 18 17 19 20 21 22 22 23 24 24 25 24 25 25 25
12 12 12 14 14 15 17 17 18 20 21 20 18 17 17 17 17 17 17 17 17 17 17 16 17 18 18 17 17 18 18 18 20 21 22 22 23 24 24 24 24 24 24 25
14 14 14 15 15 16 16 18 19 20 21 22 21 18 18 18 18 19 18 17 16 16 17 17 18 18 18 17 18 18 18 19 20 21 21 22 23 23 24 24 24 24 24 24
15 16 15 16 16 17 17 18 20 20 20 20 21 18 18 18 18 19 18 18 17 17 17 17 17 17 17 17 18 18 18 19 20 21 22 23 24 23 23 24 24 24 24 23
17 18 17 17 17 18 18 19 20 20 21 21 21 20 18 18 18 19 19 19 18 17 17 17 17 17 17 17 17 18 19 19 20 21 22 22 23 22 22 23 23 23 22 21
19 18 19 19 18 19 19 19 20 21 23 22 22 21 19 19 19 19 19 19 18 17 18 17 16 17 16 16 16 18 19 20 21 21 21 21 21 21 21 21 21 21 20 20
20 20 19 19 19 20 20 20 20 22 23 24 22 21 21 20 20 19 19 18 18 18 17 17 17 16 16 16 17 17 18 19 19 19 19 20 20 20 20 20 20 20 19 19
20 21 21 20 20 21 21 21 22 23 24 24 23 22 21 21 20 19 19 19 19 19 18 18 18 17 17 16 16 17 17 19 19 18 18 18 19 19 18 18 18 18 17 17
21 21 22 22 21 22 22 22 23 23 23 23 22 22 21 21 20 18 19 19 19 19 19 18 17 17 17 16 16 17 17 18 18 18 17 17 18 17 17 18 17 16 16 17
23 22 23 23 23 23 22 22 23 23 22 23 23 22 21 21 20 20 19 18 18 19 19 18 17 16 15 15 15 16 16 16 16 17 17 17 17 16 16 16 16 15 16 16
24 24 24 25 25 24 23 23 23 24 23 23 22 22 21 20 20 19 18 18 18 17 16 15 15 15 14 14 14 15 15 15 15 16 15 15 15 15 14 15 15 15 16 16
25 24 25 25 26 25 25 24 23 24 23 23 23 22 22 21 20 19 19 19 18 17 15 14 14 13 13 13 13 13 14 14 15 15 14 14 14 14 14 14 14 15 16 16
26 26 26 26 26 25 25 25 23 23 23 22 22 21 21 20 20 20 19 18 17 16 14 13 13 12 12 12 12 12 12 13 13 13 13 13 13 13 14 13 14 15 15 16
28 28 27 27 26 25 24 24 23 23 22 20 19 19 19 19 20 20 18 17 16 15 12 11 11 11 11 11 11 11 11 11 12 12 12 12 13 13 13 13 13 14 15 16
27 27 28 27 26 23 23 23 22 22 22 20 19 18 18 18 18 19 18 16 14 12 10 10 10 10 9 9 9 9 10 10 11 11 11 12 12 12 12 12 13 14 16 16
26 26 26 25 23 22 22 22 22 22 21 21 20 18 17 17 16 16 15 13 11 9 9 9 9 8 8 7 8 8 9 9 10 10 11 11 11 11 12 13 14 14 15 17
25 25 24 24 23 23 22 22 22 22 21 20 19 18 16 16 14 13 12 12 11 9 8 8 7 7 7 6 7 8 8 8 8 9 10 10 10 11 12 13 13 14 16 18
24 24 25 23 22 22 21 20 19 19 18 18 17 15 15 14 12 11 10 10 10 9 7 7 6 6 6 6 7 7 7 7 8 9 9 9 10 11 12 13 14 15 16 18

GEFSCGP_500_meanwind_180.txt.gz
Wind_Speed
5 5 6 7 8 9 10 10 11 12 13 14 14 15 15 16 17 17 18 19 20 20 21 21 21 22 22 23 24 25 24 24 24 24 24 24 25 25 26 26 26 26 26 27
4 5 6 7 7 8 9 10 11 12 13 14 15 14 15 17 17 17 18 19 19 20 21 21 21 22 22 23 23 23 22 23 23 23 23 24 25 26 26 26 26 25 26 26
4 5 5 6 7 8 9 10 11 12 13 14 15 15 16 17 17 18 19 19 19 20 20 20 21 21 21 22 21 22 22 22 23 23 23 24 25 25 25 25 25 25 25 26
3 5 5 6 7 8 10 11 12 13 14 15 15 16 16 17 18 19 19 19 19 19 19 20 20 21 20 20 21 22 22 22 22 23 24 24 25 25 25 25 25 25 25 25
3 5 6 7 8 9 10 11 12 13 14 14 14 15 15 16 17 18 19 19 19 18 19 20 21 20 19 19 20 21 21 22 22 23 23 24 25 24 25 25 25 25 25 25
5 6 7 8 9 9 10 11 12 12 12 13 14 15 15 16 17 18 18 18 18 19 19 20 20 19 19 20 20 20 22 22 22 22 23 24 25 25 25 24 25 25 26 25
7 8 8 8 9 10 10 10 10 10 11 13 15 16 17 17 17 18 18 18 18 19 20 20 19 19 20 20 20 20 21 22 22 22 22 23 23 24 23 22 23 25 25 26
7 9 10 10 10 11 11 10 11 12 13 14 15 16 18 17 16 17 18 18 18 18 18 18 18 19 20 20 21 21 21 22 21 21 22 22 22 22 22 22 22 23 23 24
9 11 12 11 12 12 13 12 12 13 14 15 16 17 18 18 17 17 18 18 18 18 18 18 18 19 19 20 21 21 21 21 21 21 21 21 21 22 22 22 22 23 24 24
11 11 12 12 13 13 14 14 14 14 16 17 18 18 18 19 19 19 19 18 18 18 18 19 19 19 20 20 19 19 20 20 20 21 21 21 22 21 22 22 22 23 23 23
11 12 12 13 12 14 15 15 16 16 18 18 19 19 20 20 21 21 20 20 19 19 19 19 20 20 20 19 18 19 19 19 19 19 20 20 21 21 21 22 22 22 22 22
13 13 14 14 15 15 16 16 16 18 19 19 20 20 21 21 21 22 22 21 20 20 20 20 19 19 18 18 18 18 18 18 18 18 18 19 19 19 20 20 21 21 21 21
14 15 16 16 17 17 17 17 18 19 20 20 20 20 22 22 22 22 22 22 21 20 20 19 19 19 18 18 18 18 17 17 17 17 17 18 18 18 19 19 20 20 19 20
15 16 16 17 18 19 19 18 19 20 21 22 22 22 23 23 22 22 22 22 22 20 19 19 19 19 19 18 18 17 17 17 17 16 17 17 18 18 18 18 19 19 19 19
17 17 18 18 19 20 20 20 20 21 22 22 22 23 24 24 23 23 23 22 21 19 19 18 18 18 18 18 17 16 15 15 16 16 16 17 17 17 17 18 18 18 18 18
19 19 19 19 20 21 21 21 21 21 21 22 23 23 24 24 23 23 23 22 20 20 20 19 19 18 17 17 16 15 15 15 16 15 16 16 16 16 17 17 17 17 17 17
19 20 20 20 20 21 22 21 21 22 22 22 23 23 23 23 22 22 22 21 20 20 20 20 19 18 17 16 16 15 15 15 15 14 15 15 16 16 16 16 16 17 17 16
20 21 21 21 21 22 22 23 23 23 23 23 23 23 22 22 22 21 21 19 20 20 20 19 19 18 17 16 15 15 14 14 13 13 14 15 15 15 15 15 15 15 16 16
21 22 23 23 23 24 24 24 25 25 24 24 23 22 21 20 20 20 20 20 20 20 19 19 19 18 17 15 14 14 13 13 12 12 13 14 14 14 14 14 14 14 15 16
23 23 24 24 24 25 25 25 25 25 25 24 23 22 21 20 20 20 20 20 19 19 18 18 18 16 14 13 13 13 11 11 11 12 12 13 13 13 13 13 14 14 16 17
25 25 25 24 25 25 25 25 25 24 24 24 23 22 22 21 21 20 19 19 18 17 16 16 15 13 13 11 11 11 10 10 10 11 11 12 12 12 12 13 13 14 16 16
25 26 26 26 25 26 26 26 26 25 25 24 22 22 21 20 20 18 18 17 16 15 13 13 13 12 12 11 10 9 8 8 9 10 10 11 12 12 12 13 13 14 15 15
26 26 26 26 25 26 26 26 26 25 24 23 22 21 20 19 17 16 15 14 13 12 11 11 11 11 11 10 8 7 7 8 8 9 10 11 11 11 11 12 13 13 14 15
27 27 27 27 25 25 25 25 24 23 22 21 20 19 18 17 16 15 14 13 12 11 10 10 10 10 8 7 6 5 5 6 6 7 9 10 10 11 11 12 12 13 14 15
27 28 28 27 25 24 23 23 22 21 20 19 17 17 16 15 14 13 12 12 10 9 9 8 8 7 6 5 4 4 4 5 6 6 8 9 10 11 11 11 12 13 14 15
27 27 26 25 25 24 23 21 20 19 18 16 15 15 14 13 12 11 10 9 9 8 7 7 6 5 4 4 3 3 3 4 5 6 7 8 9 11 11 11 12 13 15 16

GEFSCGP_500_meanwind_186.txt.gz
Wind_Speed
2 2 3 4 4 5 7 10 10 9 11 13 15 16 15 17 20 19 20 21 22 23 24 23 23 24 24 24 24 25 26 27 28 28 28 28 27 27 27 27 27 27 26 26
4 3 4 6 8 9 9 10 10 10 12 13 15 16 15 16 19 20 21 21 21 21 22 22 23 23 23 23 24 25 26 27 28 28 27 27 27 27 27 27 25 24 25 26
4 6 8 8 9 10 10 10 9 11 12 12 13 15 16 17 19 20 22 22 23 22 23 23 22 23 23 23 24 25 26 27 27 27 27 27 27 27 26 26 26 26 26 26
5 8 8 7 8 10 9 9 11 12 12 13 13 14 17 18 19 21 21 22 23 23 24 24 24 24 24 24 25 26 26 27 27 27 27 28 27 26 26 27 26 26 26 26
6 8 7 6 8 9 10 10 11 11 10 11 11 15 19 19 20 21 22 22 23 25 25 25 24 24 24 25 25 26 26 27 26 26 26 26 26 26 25 26 26 25 25 26
7 8 8 8 8 10 11 11 10 10 10 11 12 15 19 19 20 21 23 23 26 26 26 26 25 25 26 27 27 26 26 26 25 25 25 26 26 26 25 25 26 25 26 26
8 9 10 10 11 11 10 11 11 9 10 11 12 15 19 21 22 23 24 25 27 26 26 25 26 26 27 27 27 27 26 25 25 25 25 25 25 24 24 25 26 26 26 25
7 8 10 11 11 11 11 11 11 12 12 12 12 15 20 22 23 23 24 26 26 26 26 26 26 27 27 27 27 26 25 25 25 25 25 25 24 24 24 25 25 26 26 24
7 7 9 10 9 11 12 12 12 13 13 13 13 15 20 23 23 23 25 26 27 27 27 27 26 26 26 26 25 25 25 25 25 24 24 24 23 23 24 24 25 24 23 23
11 10 9 10 10 11 12 13 14 13 13 14 13 16 21 24 26 27 26 26 28 28 27 27 27 26 25 25 25 25 25 24 24 23 23 23 23 22 23 22 22 21 21 21
11 11 10 9 10 11 14 14 15 15 15 16 18 19 22 24 26 27 27 27 27 27 27 25 26 26 25 24 25 25 23 23 22 22 21 21 21 21 21 21 21 21 21 20
12 12 11 11 11 11 14 15 16 18 18 19 21 21 23 26 27 28 28 27 27 27 27 26 25 24 24 24 24 23 22 22 21 20 20 19 19 19 20 20 20 21 21 20
14 14 13 12 12 13 15 16 17 19 20 23 22 23 25 27 30 30 29 27 26 27 26 25 24 24 24 24 23 21 21 20 20 20 20 19 19 19 19 19 19 20 19 19
15 15 15 15 14 16 17 17 18 20 21 23 24 25 27 29 29 29 29 28 27 26 25 24 24 24 24 23 22 20 20 20 20 19 19 18 18 19 18 18 19 19 19 20
17 16 16 16 16 18 19 19 20 21 23 25 26 27 28 29 29 29 28 28 26 25 24 23 24 24 22 21 21 20 19 20 19 18 18 18 18 18 17 18 18 19 19 20
18 18 17 17 17 18 20 20 20 21 23 24 26 27 28 28 27 27 27 26 24 23 23 23 23 22 20 20 20 19 18 18 18 18 17 17 17 16 16 17 18 18 19 20
19 19 20 19 20 20 21 20 20 21 22 25 26 27 27 26 26 27 26 25 24 24 24 23 21 21 20 19 19 19 18 18 17 17 17 16 16 15 15 16 16 17 18 20
20 20 21 21 22 22 21 20 21 21 23 24 25 26 26 25 25 26 26 25 24 24 23 22 20 19 18 18 19 18 18 17 16 16 16 15 14 14 15 15 16 17 18 19
21 20 21 21 22 22 22 22 21 22 24 25 25 25 25 24 25 26 26 25 23 23 22 20 19 18 18 18 18 18 17 16 16 15 13 13 12 13 14 15 15 16 18 18
23 23 23 22 22 23 23 22 22 24 26 25 25 25 25 25 25 25 25 24 22 22 21 20 19 19 17 16 16 16 16 16 14 13 11 10 11 12 14 14 15 16 16 17
25 25 24 23 23 24 25 24 24 25 26 25 25 25 26 26 25 25 25 24 23 22 21 20 18 17 16 15 15 15 15 14 12 11 9 9 10 11 12 13 14 15 16 16
25 25 25 25 25 26 26 27 26 26 25 24 25 26 26 26 25 25 24 23 21 20 20 18 16 15 14 14 13 12 11 11 10 8 7 7 9 11 11 12 13 15 15 16
26 25 26 25 25 26 27 28 27 27 26 25 25 25 26 25 25 24 22 21 20 19 19 17 15 13 12 10 10 9 9 8 6 5 5 7 9 10 11 12 13 14 15 16
27 27 27 27 26 26 27 27 28 26 24 24 25 24 25 25 24 23 21 19 18 17 16 15 13 12 9 8 8 8 7 6 5 5 5 6 8 9 10 12 13 14 15 16
27 28 28 27 27 26 26 25 25 24 23 24 23 24 24 23 22 20 19 17 16 14 14 14 12 9 8 7 7 6 5 5 5 5 6 7 8 9 10 12 13 14 16 17
27 27 28 27 27 26 25 24 23 23 22 22 22 22 21 20 19 18 16 15 14 12 11 11 10 8 7 6 6 4 4 4 4 5 5 7 8 9 10 11 13 15 16 17

GEFSCGP_500_meanwind_192.txt.gz
Wind_Speed
2 2 1 0 1 3 4 6 8 8 8 10 12 14 14 15 16 17 18 19 20 21 21 22 22 22 23 24 25 24 24 24 25 25 25 26 26 26 25 24 24 24 24 24
1 2 2 2 3 4 5 7 9 9 10 12 13 15 15 15 16 17 19 20 21 21 22 23 22 23 24 25 25 25 25 25 25 25 26 26 26 25 25 25 24 24 25 24
2 2 4 5 6 7 8 9 10 10 11 12 15 16 15 15 16 18 19 20 21 22 23 23 23 24 24 25 26 26 25 25 26 26 26 25 25 25 25 25 26 25 24 24
4 4 6 8 8 9 9 10 11 11 12 11 13 15 15 16 16 17 19 20 23 23 24 24 26 26 26 27 27 27 26 27 27 27 26 25 26 26 25 25 25 24 24 24
5 6 6 8 8 9 9 10 10 11 12 13 15 16 16 16 17 18 19 21 23 24 25 26 27 27 28 28 27 27 27 28 28 28 27 26 26 25 25 24 24 23 23 23
5 7 8 9 8 10 10 9 10 11 13 14 14 16 16 17 19 19 20 22 22 24 26 28 27 27 27 27 27 27 27 27 27 27 26 25 25 25 24 24 24 24 22 22
6 7 9 9 9 9 10 10 10 10 13 14 15 16 16 17 17 19 20 22 24 25 26 27 26 26 27 27 27 27 27 26 26 25 24 23 23 23 23 23 23 22 22 22
8 9 10 10 10 10 11 11 11 12 13 14 14 15 16 17 18 20 22 23 25 25 25 27 27 26 27 26 26 26 26 25 24 24 23 23 22 21 21 22 21 21 20 21
8 9 10 10 11 12 12 12 13 12 13 13 14 16 17 18 19 21 22 24 24 25 27 26 26 27 27 26 25 25 26 25 24 23 22 22 21 20 21 21 20 20 19 18
9 9 9 10 11 12 12 12 12 13 14 14 15 17 18 19 20 22 23 24 25 27 28 27 26 27 27 25 25 25 25 23 23 22 22 21 20 20 19 18 18 18 18 17
10 10 9 10 11 12 13 13 13 14 15 17 18 18 19 21 22 23 25 26 26 26 26 27 27 27 26 25 25 24 21 21 21 22 22 22 21 20 18 18 17 18 18 17
11 10 11 11 12 12 13 13 14 15 16 17 19 20 20 21 23 24 25 27 27 26 26 26 26 25 25 25 25 23 23 22 22 22 21 20 19 18 17 17 17 18 18 18
12 11 12 11 12 13 13 14 15 16 17 18 19 20 21 22 22 23 25 25 25 25 25 25 25 25 24 23 23 23 23 23 22 21 19 18 18 16 16 16 17 17 18 17
12 12 13 12 13 14 14 14 16 17 18 19 20 21 21 21 22 23 24 24 24 24 24 24 25 24 23 23 22 22 21 21 20 19 17 17 16 15 15 16 16 16 16 16
13 13 14 14 15 15 15 15 17 17 18 19 20 21 21 22 23 24 25 24 24 24 24 23 23 23 22 21 21 20 19 18 17 16 16 15 15 15 15 15 15 15 15 16
14 15 16 16 16 17 16 16 17 18 18 19 20 20 21 22 24 24 24 24 24 23 23 22 22 21 21 20 19 18 17 16 15 14 14 14 15 15 15 15 14 14 14 14
16 17 17 18 18 17 17 17 18 18 18 18 19 20 21 22 23 24 24 24 24 22 22 21 21 19 19 19 18 17 15 14 13 13 13 14 14 14 14 13 13 13 13 13
18 18 18 19 20 19 18 18 18 18 18 18 19 20 21 22 23 24 23 23 23 22 22 21 19 18 18 18 16 15 14 13 13 13 13 12 12 13 12 12 12 12 12 13
20 20 21 21 21 20 19 18 19 19 19 19 20 21 21 21 23 23 22 22 22 22 21 19 17 17 17 16 15 15 14 14 14 13 12 11 12 12 11 11 10 11 12 12
22 22 22 22 22 21 19 19 19 20 20 20 21 21 21 22 22 22 22 22 21 20 19 18 17 16 16 15 15 15 15 15 14 12 11 11 11 11 10 10 9 10 11 12
22 22 22 21 21 21 20 20 21 21 21 20 20 20 20 21 21 21 21 21 19 18 17 17 16 16 15 14 14 15 15 14 13 12 11 10 9 9 9 9 9 9 10 11
21 22 22 23 22 21 21 21 21 21 21 21 20 19 20 20 20 20 20 19 18 17 17 16 15 14 14 14 14 14 14 13 12 11 10 9 8 7 7 8 8 9 11 11
22 23 23 23 22 22 21 21 22 22 22 21 20 19 19 19 19 19 19 18 18 17 16 14 14 14 13 13 13 13 13 11 10 9 9 8 7 6 6 6 7 9 11 12
24 24 24 24 23 23 22 22 22 22 22 20 19 19 18 18 18 18 18 17 16 15 15 14 14 13 12 11 11 11 10 9 9 9 8 7 6 6 7 7 8 9 11 13
25 25 25 25 24 24 24 23 23 22 22 20 19 18 18 17 17 17 17 16 15 14 14 14 13 12 11 10 9 8 8 8 8 8 7 7 6 6 7 8 8 10 12 13
25 25 25 25 25 25 24 23 23 23 21 20 19 18 17 17 17 16 16 14 13 13 12 12 12 11 10 8 6 6 7 7 7 7 6 7 6 6 7 9 10 11 12 14

GEFSCGP_500_meanwind_198.txt.gz
Wind_Speed
0 2 4 5 6 7 8 9 9 10 11 12 13 13 13 14 15 16 17 18 19 20 22 23 23 23 24 25 26 27 27 25 26 27 28 27 27 26 27 27 26 27 27 28
2 3 5 6 6 8 9 10 11 11 12 13 14 15 14 15 17 18 18 19 20 22 23 23 24 25 26 27 28 28 27 27 27 28 28 27 27 27 27 27 27 27 27 27
4 4 6 6 7 8 10 10 11 12 13 14 16 16 16 18 18 18 19 20 22 23 24 24 25 26 27 28 28 28 27 28 29 28 28 28 28 28 28 28 27 27 27 27
5 5 6 7 8 8 9 10 11 12 13 14 15 16 16 17 18 18 19 21 23 24 25 26 27 27 27 27 27 27 28 29 30 30 29 28 28 27 27 27 26 27 26 26
5 6 7 7 8 9 9 10 11 12 13 15 15 17 16 17 17 18 19 21 23 25 26 27 27 27 27 28 28 29 29 30 31 30 30 28 27 27 26 26 26 25 25 24
7 7 8 9 9 9 10 11 11 12 13 14 15 17 17 18 18 18 19 21 23 25 26 27 27 27 28 29 30 30 30 31 31 30 31 29 27 26 25 25 23 24 23 22
8 8 9 9 10 10 11 11 12 13 14 14 15 16 18 18 19 19 20 21 23 25 26 27 27 28 29 30 30 30 31 31 30 30 29 28 26 25 24 23 23 23 23 22
9 9 10 10 11 11 11 12 12 13 14 14 15 17 18 19 20 20 21 22 24 25 26 27 27 28 29 30 30 29 29 30 29 29 28 27 26 24 24 23 23 23 22 20
9 10 11 11 12 13 13 13 13 14 15 16 16 16 18 19 20 21 22 23 24 25 26 27 28 28 28 28 28 28 28 28 28 28 28 26 24 24 23 23 22 21 21 19
10 11 12 13 13 14 14 15 15 14 16 16 17 18 19 19 21 23 24 25 25 25 26 26 26 27 27 27 28 27 27 27 27 27 26 24 22 21 20 19 19 19 19 19
11 12 13 14 14 15 15 15 15 15 16 18 19 20 21 22 23 24 25 25 25 25 25 25 26 26 27 27 27 26 26 27 26 25 23 21 19 18 18 17 17 18 18 18
12 13 14 15 15 15 16 16 16 16 17 18 20 21 21 22 23 24 24 24 24 24 25 25 26 26 26 26 25 25 25 25 24 23 20 18 16 16 16 16 16 17 17 17
13 13 14 15 15 15 16 17 17 17 18 18 20 20 21 21 22 23 23 22 23 24 24 25 25 25 25 24 24 25 24 24 22 21 18 16 14 15 16 16 16 16 16 16
14 14 15 15 16 16 16 17 18 19 19 19 20 20 20 21 21 21 21 22 23 23 23 24 24 23 22 23 24 24 23 23 21 19 17 15 14 15 15 16 17 17 16 16
15 15 15 15 16 16 17 17 18 19 19 20 20 20 21 21 22 22 22 22 22 22 22 23 22 22 21 22 23 22 22 21 19 17 16 15 15 15 15 15 16 16 15 16
16 16 16 17 18 18 18 18 19 19 20 20 20 20 20 21 22 22 22 21 21 21 21 22 22 21 21 21 21 21 20 18 17 16 16 15 14 15 15 15 15 15 15 14
17 18 19 18 19 19 19 19 20 20 21 21 20 20 20 20 21 22 21 21 21 21 22 22 20 20 20 20 20 19 18 16 15 16 15 15 15 14 14 15 14 14 14 14
20 20 21 20 20 20 20 20 20 21 21 21 20 20 20 21 21 21 21 21 21 21 21 20 20 20 19 19 19 18 17 15 15 15 16 15 14 14 14 14 14 13 14 14
22 22 22 22 21 21 20 20 21 21 21 21 20 20 21 21 21 21 22 21 21 21 19 19 20 20 19 18 18 18 16 15 16 15 16 15 15 15 14 14 13 13 14 14
23 24 24 23 23 22 21 21 22 22 21 21 21 21 21 22 22 21 21 21 21 20 19 19 19 19 18 18 18 17 16 15 15 16 16 15 15 15 15 14 13 14 14 13
24 24 24 24 24 23 23 22 22 22 22 22 21 21 21 22 22 21 21 21 22 20 19 19 18 18 18 17 17 16 15 15 15 15 15 15 15 14 14 13 12 12 13 13
25 25 25 25 25 23 23 22 22 22 22 22 22 22 22 22 22 21 21 21 21 20 18 18 17 17 17 17 16 15 14 14 14 14 14 14 15 14 13 12 12 12 12 12
26 26 26 26 26 25 24 24 23 23 22 22 22 22 22 22 22 21 21 21 20 19 17 16 16 16 16 16 15 14 13 13 13 13 13 13 13 13 12 12 12 12 11 12
27 27 27 27 26 26 26 25 24 23 23 23 23 23 22 22 22 22 22 21 20 18 16 15 15 15 15 15 14 13 12 12 12 13 12 12 12 11 11 11 12 12 13 13
27 28 28 28 27 27 27 26 26 25 24 24 24 23 22 22 22 22 22 20 19 18 16 15 15 14 14 14 12 11 11 11 11 12 12 12 11 11 11 12 12 12 12 13
28 30 30 29 28 28 27 27 27 26 25 25 25 23 22 22 22 21 21 20 18 17 16 15 15 14 13 13 11 10 10 10 10 11 11 11 11 11 11 11 12 12 12 13

GEFSCGP_500_meanwind_204.txt.gz
Wind_Speed
2 1 1 3 3 4 5 6 8 9 10 10 10 11 12 13 14 15 17 18 18 19 20 21 22 23 24 25 25 26 28 28 30 29 30 30 30 31 31 31 31 31 30 30
1 1 2 3 4 5 6 7 7 8 10 10 11 11 12 13 14 15 17 18 20 20 22 23 23 24 25 26 27 27 29 30 30 30 30 30 30 31 31 31 31 30 30 31
1 3 3 4 5 6 7 7 8 9 10 11 11 12 12 13 14 16 17 19 20 21 22 23 24 26 27 27 27 27 28 29 29 29 29 28 29 29 29 30 29 29 29 29
2 3 4 5 5 6 7 9 9 10 10 11 12 13 14 14 15 16 17 19 21 22 24 24 25 26 27 27 27 27 28 29 29 28 27 27 28 28 28 28 28 28 28 27
3 4 5 6 6 6 7 9 9 10 10 11 12 12 14 15 16 16 18 19 21 21 22 23 24 26 26 27 27 28 27 27 27 26 26 26 27 27 27 28 28 27 27 27
4 5 6 7 8 8 8 9 9 9 10 11 12 11 13 15 16 17 18 19 20 21 22 23 24 26 26 27 27 27 27 26 25 25 26 26 26 26 26 26 25 25 25 24
6 7 8 9 10 9 9 9 10 10 10 12 13 13 14 15 16 16 18 19 20 21 22 23 24 25 26 26 26 26 25 25 25 25 26 26 25 25 25 23 22 22 22 22
7 8 9 10 9 10 9 9 10 11 11 13 14 13 14 15 16 17 18 20 20 21 22 23 24 25 25 25 25 25 25 26 26 26 26 25 25 24 23 22 21 22 21 21
8 9 10 10 11 10 11 11 11 12 13 13 13 15 16 16 16 18 19 19 20 21 22 23 24 24 24 24 25 25 25 26 26 26 24 23 23 23 22 21 21 20 20 19
10 11 12 11 11 11 11 12 12 12 12 12 13 15 18 18 18 19 19 20 20 21 22 23 24 24 24 25 25 25 25 26 26 25 24 22 22 21 21 21 20 19 18 18
11 11 12 12 11 12 12 12 13 13 13 13 14 17 19 19 19 20 20 20 21 21 22 23 24 24 24 24 24 24 25 25 25 24 23 21 21 21 21 20 19 18 18 17
11 11 12 13 12 12 13 14 14 14 14 14 16 19 19 19 20 21 21 21 21 22 22 23 23 23 23 24 24 24 24 25 24 23 22 21 21 21 20 19 18 17 15 15
12 12 13 14 15 14 14 14 15 15 15 15 16 19 20 21 21 21 22 21 22 22 23 23 23 23 23 24 23 23 23 23 22 22 21 20 20 19 18 17 16 15 14 14
13 13 13 13 15 16 16 16 15 16 16 17 18 19 21 21 21 22 21 21 21 21 22 23 22 23 23 23 23 23 22 22 21 20 20 19 17 16 15 14 14 14 14 14
14 14 15 15 16 16 16 17 17 17 17 18 20 20 21 21 22 22 22 21 22 22 22 22 21 22 22 22 22 22 21 21 20 19 18 17 15 14 14 14 14 14 14 13
16 16 16 16 17 17 17 17 17 18 19 20 20 21 21 21 22 22 22 22 23 22 22 22 21 21 21 21 21 20 20 19 18 17 16 15 14 14 14 14 14 14 14 14
16 16 16 17 17 18 18 18 18 19 20 20 20 21 21 22 23 22 21 22 23 23 22 21 20 20 20 20 19 19 18 17 17 16 15 14 13 13 14 14 15 14 13 14
18 18 18 17 18 18 19 18 19 19 20 20 20 21 21 22 22 21 21 22 22 22 21 20 19 19 19 19 18 18 18 16 15 15 14 14 13 13 14 14 14 14 14 14
19 19 19 19 19 20 20 19 19 20 20 20 20 21 21 21 21 22 21 22 22 21 20 19 18 18 18 17 17 17 16 15 14 14 14 13 13 13 14 14 14 14 14 14
21 20 21 21 21 21 21 20 20 21 21 20 20 21 21 21 21 22 22 21 21 21 19 19 18 18 17 17 16 16 15 13 13 13 13 12 12 13 13 13 14 14 14 14
22 22 22 22 22 23 22 21 21 21 22 21 20 21 21 21 21 22 22 21 21 20 19 18 18 17 17 17 16 15 13 12 12 12 12 12 12 13 13 14 14 13 13 13
23 23 23 23 24 24 23 22 22 22 22 21 21 21 21 22 22 21 21 20 20 19 19 18 17 17 16 16 15 14 13 13 12 12 12 12 12 13 13 13 13 12 13 12
25 25 25 24 24 25 24 23 23 23 22 22 22 22 22 22 21 21 21 20 19 19 18 18 17 16 15 14 13 12 13 12 12 12 12 12 12 13 13 13 12 12 13 13
27 26 26 26 25 25 25 24 24 24 24 24 24 23 23 22 21 21 21 20 19 18 18 17 15 14 13 13 12 11 11 11 11 11 11 11 12 12 12 12 12 12 12 13
27 27 27 27 27 27 26 26 26 26 25 25 25 24 23 23 22 22 21 20 18 17 16 15 14 13 12 11 11 11 11 10 10 9 10 10 11 11 10 11 11 11 12 13
27 28 28 29 29 28 27 27 26 26 26 26 26 25 24 24 23 23 21 20 18 16 16 14 13 13 12 11 10 10 10 9 9 9 9 9 9 9 9 10 10 10 11 13

GEFSCGP_500_meanwind_210.txt.gz
Wind_Speed
5 2 1 1 3 6 6 7 7 9 11 11 12 13 14 16 16 17 17 18 18 19 20 20 21 23 24 25 25 25 27 27 27 28 29 29 29 29 30 30 30 30 29 29
3 1 3 4 6 7 5 5 7 9 9 10 12 13 14 15 18 19 18 19 20 19 20 20 21 24 25 26 26 27 27 28 28 29 30 30 30 31 31 30 30 30 29 28
1 3 5 5 6 7 6 5 7 10 10 9 11 14 15 16 20 20 19 20 20 20 21 21 22 24 25 26 28 28 28 28 29 29 29 30 32 32 31 30 29 28 28 27
3 6 7 7 7 7 7 7 8 10 10 9 10 14 16 18 20 21 21 22 23 22 22 23 24 25 26 28 28 28 29 29 29 29 30 31 31 31 30 28 28 27 26 25
4 6 6 6 7 8 8 8 8 9 9 9 10 14 18 19 19 20 21 23 25 24 24 24 25 26 27 28 28 29 30 30 30 30 30 30 29 29 29 27 26 25 23 23
6 8 7 7 8 9 8 10 9 9 10 12 11 14 19 21 21 22 22 23 26 26 26 25 25 26 27 28 28 29 30 30 29 29 29 29 27 27 26 26 25 23 22 22
7 9 9 9 8 8 9 9 10 10 11 12 11 13 19 21 22 23 24 26 27 27 27 27 27 27 28 28 29 30 30 29 29 28 28 28 27 26 25 24 23 22 21 22
6 8 10 10 10 9 10 9 10 11 12 12 11 15 20 20 23 24 25 26 27 28 27 27 28 27 27 28 28 29 29 28 28 27 27 27 26 25 24 23 22 21 21 21
7 8 10 11 11 10 10 8 9 13 13 12 13 17 19 21 23 24 25 26 27 28 27 27 27 27 27 28 28 28 28 28 27 26 26 26 25 24 23 22 21 20 20 21
9 10 9 11 10 9 9 11 11 12 13 13 13 15 19 20 23 24 25 25 26 27 27 26 26 26 27 27 28 28 27 26 26 25 24 24 24 23 22 21 21 21 21 20
12 11 9 9 10 10 11 12 12 12 12 13 15 17 20 22 24 25 25 26 27 26 25 25 25 26 26 26 26 26 25 25 25 24 23 23 23 22 21 21 21 21 20 20
13 11 10 10 11 11 12 12 13 14 14 15 16 18 21 23 24 23 24 25 25 25 25 25 26 25 25 25 25 25 24 24 23 22 22 22 22 22 21 21 21 20 20 19
13 13 12 11 11 12 13 13 13 15 17 16 16 18 22 24 23 22 23 24 24 24 25 25 25 24 24 24 24 24 23 22 22 21 20 21 22 21 21 21 20 19 19 19
15 15 13 12 12 14 15 14 14 16 17 18 18 19 22 24 23 22 22 23 24 24 25 25 25 24 24 23 23 22 21 20 20 20 20 21 21 21 20 20 19 18 18 19
17 16 15 15 15 16 17 16 16 17 18 19 19 19 20 24 23 23 23 23 24 24 24 24 24 23 23 22 22 21 20 20 20 19 20 21 21 20 20 19 18 18 18 17
19 18 17 16 16 16 17 17 17 17 18 19 20 20 21 22 23 23 23 23 23 23 23 23 22 22 21 21 21 20 20 20 20 19 19 19 20 20 19 18 18 17 16 16
20 19 19 18 17 18 19 17 17 18 19 20 20 20 21 21 21 22 22 22 22 22 22 22 22 21 20 19 20 20 20 20 19 19 18 18 18 18 17 17 15 16 16 16
20 20 19 19 19 19 19 18 19 19 20 21 22 22 22 22 22 21 22 22 21 21 21 21 20 20 20 20 20 19 19 19 18 18 17 17 17 17 16 15 15 15 16 16
21 20 20 19 19 20 20 19 20 21 21 21 22 22 22 22 22 22 22 22 21 20 20 20 20 20 20 19 19 19 18 18 17 16 16 16 16 16 15 14 13 15 16 16
21 21 21 21 21 21 21 21 22 22 23 23 23 22 22 22 22 22 22 22 21 20 20 20 20 20 20 19 18 18 17 16 16 15 15 16 16 16 16 15 15 15 15 15
23 23 23 23 23 24 23 23 23 23 24 24 24 23 23 23 22 22 22 21 21 20 20 19 19 19 19 18 18 17 16 16 15 15 15 16 15 15 15 15 15 15 15 14
24 24 24 25 25 26 25 25 24 24 25 25 25 25 25 24 23 22 22 21 21 20 19 19 19 18 18 18 17 16 15 15 15 15 16 16 15 14 14 14 14 14 14 15
26 26 27 27 27 27 27 27 27 27 26 27 26 26 26 25 24 23 22 20 20 19 18 18 18 18 18 17 16 15 15 14 14 14 14 14 14 13 13 13 13 13 14 15
27 27 27 28 28 29 29 29 28 28 28 28 28 27 26 25 24 23 22 21 20 19 18 18 18 18 17 17 16 15 14 14 13 13 12 12 12 13 13 13 12 13 14 15
28 28 29 29 29 29 31 30 30 30 30 29 27 27 26 25 24 23 22 22 21 20 19 18 17 17 16 15 14 14 14 13 13 12 12 11 12 12 12 12 12 13 14 14
30 30 29 30 30 31 31 31 31 31 30 29 28 27 27 26 25 24 23 22 21 20 18 17 16 16 15 14 14 14 14 13 12 11 11 11 12 11 10 10 11 12 13 14